Observation data for Odell on 07/17/2019      Previous  Date  Next       Current Mesonet Observations  Soil Data  Daily Summary Page  Observations in Plain Language
KOD1 170500Z 16010KT 30/21 A2994 RMK A01 T02990209  RH  058%=      5-min Rain = 0
KOD1 170501Z 15010KT 30/21 A2994 RMK A01 T02990209  RH  059%=      5-min Rain = 0
KOD1 170502Z 15010KT 30/21 A2994 RMK A01 T02990209  RH  059%=      5-min Rain = 0
KOD1 170503Z 16011KT 30/21 A2994 RMK A01 T02990209  RH  059%=      5-min Rain = 0
KOD1 170504Z 15011KT 30/21 A2994 RMK A01 T02990209  RH  059%=      5-min Rain = 0
KOD1 170505Z 16010KT 30/21 A2994 RMK A01 T02990209  RH  059%=      5-min Rain = 0
KOD1 170506Z 16011KT 30/21 A2994 RMK A01 T02980209  RH  059%=      5-min Rain = 0
KOD1 170507Z 16011KT 30/21 A2994 RMK A01 T02980209  RH  059%=      5-min Rain = 0
KOD1 170508Z 16011KT 30/21 A2994 RMK A01 T02980209  RH  059%=      5-min Rain = 0
KOD1 170509Z 16012KT 30/21 A2994 RMK A01 T02980209  RH  059%=      5-min Rain = 0
KOD1 170510Z 16010KT 30/21 A2994 RMK A01 T02990209  RH  059%=      5-min Rain = 0
KOD1 170511Z 16011KT 30/21 A2994 RMK A01 T02990209  RH  059%=      5-min Rain = 0
KOD1 170512Z 16011KT 30/21 A2994 RMK A01 T02990209  RH  059%=      5-min Rain = 0
KOD1 170513Z 16012KT 30/21 A2994 RMK A01 T02990209  RH  059%=      5-min Rain = 0
KOD1 170514Z 16011KT 30/21 A2994 RMK A01 T03000210  RH  059%=      5-min Rain = 0
KOD1 170515Z 16010KT 30/21 A2994 RMK A01 T03000210  RH  059%=      5-min Rain = 0
KOD1 170516Z 16009KT 30/21 A2994 RMK A01 T02990210  RH  059%=      5-min Rain = 0
KOD1 170517Z 16011KT 30/21 A2994 RMK A01 T02990210  RH  059%=      5-min Rain = 0
KOD1 170518Z 16013KT 30/21 A2994 RMK A01 T03000210  RH  059%=      5-min Rain = 0
KOD1 170519Z 16012KT 30/21 A2994 RMK A01 T03000210  RH  059%=      5-min Rain = 0
KOD1 170520Z 16010G15KT 30/21 A2994 RMK A01 T03000210  RH  059%=      5-min Rain = 0
KOD1 170521Z 16011KT 30/21 A2994 RMK A01 T02990210  RH  059%=      5-min Rain = 0
KOD1 170522Z 15012KT 30/21 A2994 RMK A01 T02990210  RH  059%=      5-min Rain = 0
KOD1 170523Z 16012KT 30/21 A2994 RMK A01 T02990210  RH  059%=      5-min Rain = 0
KOD1 170524Z 16011KT 30/21 A2994 RMK A01 T02990211  RH  059%=      5-min Rain = 0
KOD1 170525Z 16011KT 30/21 A2994 RMK A01 T02990211  RH  059%=      5-min Rain = 0
KOD1 170526Z 16013KT 30/21 A2994 RMK A01 T02990210  RH  059%=      5-min Rain = 0
KOD1 170527Z 16012KT 30/21 A2994 RMK A01 T02990210  RH  059%=      5-min Rain = 0
KOD1 170528Z 16014KT 30/21 A2994 RMK A01 T02990210  RH  059%=      5-min Rain = 0
KOD1 170529Z 16012KT 30/21 A2994 RMK A01 T02990211  RH  059%=      5-min Rain = 0
KOD1 170530Z 16011KT 30/21 A2994 RMK A01 T02980211  RH  059%=      5-min Rain = 0
KOD1 170531Z 16013KT 30/21 A2994 RMK A01 T02980211  RH  060%=      5-min Rain = 0
KOD1 170532Z 16010KT 30/21 A2994 RMK A01 T02980211  RH  060%=      5-min Rain = 0
KOD1 170533Z 16011KT 30/21 A2994 RMK A01 T02970211  RH  060%=      5-min Rain = 0
KOD1 170534Z 16012KT 30/21 A2994 RMK A01 T02970211  RH  060%=      5-min Rain = 0
KOD1 170535Z 16012KT 30/21 A2993 RMK A01 T02970210  RH  060%=      5-min Rain = 0
KOD1 170536Z 16012KT 30/21 A2993 RMK A01 T02970210  RH  060%=      5-min Rain = 0
KOD1 170537Z 16012KT 30/21 A2993 RMK A01 T02970210  RH  060%=      5-min Rain = 0
KOD1 170538Z 16010KT 30/21 A2994 RMK A01 T02970211  RH  060%=      5-min Rain = 0
KOD1 170539Z 16010KT 30/21 A2994 RMK A01 T02960212  RH  061%=      5-min Rain = 0
KOD1 170540Z 16011KT 30/21 A2994 RMK A01 T02950211  RH  061%=      5-min Rain = 0
KOD1 170541Z 16010KT 30/21 A2994 RMK A01 T02950211  RH  061%=      5-min Rain = 0
KOD1 170542Z 16012KT 30/21 A2994 RMK A01 T02950211  RH  061%=      5-min Rain = 0
KOD1 170543Z 16012KT 30/21 A2994 RMK A01 T02950211  RH  061%=      5-min Rain = 0
KOD1 170544Z 17011KT 30/21 A2994 RMK A01 T02950211  RH  061%=      5-min Rain = 0
KOD1 170545Z 16011KT 30/21 A2994 RMK A01 T02950211  RH  061%=      5-min Rain = 0
KOD1 170546Z 16012KT 29/21 A2994 RMK A01 T02940211  RH  061%=      5-min Rain = 0
KOD1 170547Z 16010KT 29/21 A2994 RMK A01 T02940211  RH  061%=      5-min Rain = 0
KOD1 170548Z 16012KT 29/21 A2994 RMK A01 T02940211  RH  061%=      5-min Rain = 0
KOD1 170549Z 16013KT 29/21 A2993 RMK A01 T02940211  RH  061%=      5-min Rain = 0
KOD1 170550Z 17013KT 29/21 A2993 RMK A01 T02940211  RH  061%=      5-min Rain = 0
KOD1 170551Z 17012G17KT 29/21 A2993 RMK A01 T02940211  RH  061%=      5-min Rain = 0
KOD1 170552Z 16011KT 29/21 A2993 RMK A01 T02940211  RH  061%=      5-min Rain = 0
KOD1 170553Z 16012KT 29/21 A2993 RMK A01 T02940211  RH  061%=      5-min Rain = 0
KOD1 170554Z 16012KT 29/21 A2993 RMK A01 T02940211  RH  061%=      5-min Rain = 0
KOD1 170555Z 17012KT 29/21 A2993 RMK A01 T02940210  RH  061%=      5-min Rain = 0
KOD1 170556Z 17013KT 29/21 A2993 RMK A01 T02940211  RH  061%=      5-min Rain = 0
KOD1 170557Z 17011KT 29/21 A2993 RMK A01 T02940210  RH  061%=      5-min Rain = 0
KOD1 170558Z 17012KT 29/21 A2993 RMK A01 T02930210  RH  061%=      5-min Rain = 0
KOD1 170559Z 17011KT 29/21 A2993 RMK A01 T02940210  RH  061%=      5-min Rain = 0
KOD1 170600Z 17012KT 29/21 A2993 RMK A01 T02930210  RH  061%=      5-min Rain = 0
KOD1 170601Z 17011KT 29/21 A2993 RMK A01 T02930210  RH  061%=      5-min Rain = 0
KOD1 170602Z 16012KT 29/21 A2993 RMK A01 T02930210  RH  061%=      5-min Rain = 0
KOD1 170603Z 17012KT 29/21 A2993 RMK A01 T02930210  RH  061%=      5-min Rain = 0
KOD1 170604Z 17013KT 29/21 A2993 RMK A01 T02940210  RH  061%=      5-min Rain = 0
KOD1 170605Z 16012KT 29/21 A2993 RMK A01 T02940211  RH  061%=      5-min Rain = 0
KOD1 170606Z 16011G16KT 29/21 A2993 RMK A01 T02940211  RH  061%=      5-min Rain = 0
KOD1 170607Z 16012KT 29/21 A2993 RMK A01 T02930210  RH  061%=      5-min Rain = 0
KOD1 170608Z 16013KT 29/21 A2993 RMK A01 T02930210  RH  061%=      5-min Rain = 0
KOD1 170609Z 16011KT 29/21 A2993 RMK A01 T02930210  RH  061%=      5-min Rain = 0
KOD1 170610Z 16012KT 29/21 A2993 RMK A01 T02930210  RH  061%=      5-min Rain = 0
KOD1 170611Z 16011KT 29/21 A2993 RMK A01 T02930210  RH  061%=      5-min Rain = 0
KOD1 170612Z 16012KT 29/21 A2993 RMK A01 T02930210  RH  061%=      5-min Rain = 0
KOD1 170613Z 17012KT 29/21 A2993 RMK A01 T02930210  RH  061%=      5-min Rain = 0
KOD1 170614Z 16010KT 29/21 A2993 RMK A01 T02920210  RH  061%=      5-min Rain = 0
KOD1 170615Z 16012KT 29/21 A2993 RMK A01 T02920210  RH  061%=      5-min Rain = 0
KOD1 170616Z 17012KT 29/21 A2993 RMK A01 T02920210  RH  061%=      5-min Rain = 0
KOD1 170617Z 16012KT 29/21 A2993 RMK A01 T02920210  RH  061%=      5-min Rain = 0
KOD1 170618Z 17011KT 29/21 A2993 RMK A01 T02920210  RH  061%=      5-min Rain = 0
KOD1 170619Z 17011KT 29/21 A2993 RMK A01 T02910210  RH  061%=      5-min Rain = 0
KOD1 170620Z 17012KT 29/21 A2993 RMK A01 T02910210  RH  061%=      5-min Rain = 0
KOD1 170621Z 16011KT 29/21 A2993 RMK A01 T02910210  RH  061%=      5-min Rain = 0
KOD1 170622Z 17012KT 29/21 A2993 RMK A01 T02910210  RH  061%=      5-min Rain = 0
KOD1 170623Z 16011KT 29/21 A2993 RMK A01 T02910210  RH  062%=      5-min Rain = 0
KOD1 170624Z 16012KT 29/21 A2993 RMK A01 T02910210  RH  062%=      5-min Rain = 0
KOD1 170625Z 16012KT 29/21 A2993 RMK A01 T02910209  RH  061%=      5-min Rain = 0
KOD1 170626Z 17012KT 29/21 A2993 RMK A01 T02920210  RH  061%=      5-min Rain = 0
KOD1 170627Z 16012KT 29/21 A2993 RMK A01 T02910210  RH  061%=      5-min Rain = 0
KOD1 170628Z 17012KT 29/21 A2993 RMK A01 T02910210  RH  061%=      5-min Rain = 0
KOD1 170629Z 16011KT 29/21 A2993 RMK A01 T02920210  RH  061%=      5-min Rain = 0
KOD1 170630Z 16011KT 29/21 A2993 RMK A01 T02910210  RH  061%=      5-min Rain = 0
KOD1 170631Z 16011KT 29/21 A2993 RMK A01 T02910209  RH  061%=      5-min Rain = 0
KOD1 170632Z 17011KT 29/21 A2993 RMK A01 T02900209  RH  062%=      5-min Rain = 0
KOD1 170633Z 16012KT 29/21 A2993 RMK A01 T02900209  RH  061%=      5-min Rain = 0
KOD1 170634Z 16011KT 29/21 A2993 RMK A01 T02900209  RH  061%=      5-min Rain = 0
KOD1 170635Z 16011KT 29/21 A2993 RMK A01 T02910209  RH  061%=      5-min Rain = 0
KOD1 170636Z 17010KT 29/21 A2993 RMK A01 T02900209  RH  062%=      5-min Rain = 0
KOD1 170637Z 16012KT 29/21 A2993 RMK A01 T02900209  RH  062%=      5-min Rain = 0
KOD1 170638Z 16011KT 29/21 A2993 RMK A01 T02900208  RH  061%=      5-min Rain = 0
KOD1 170639Z 16010KT 29/21 A2993 RMK A01 T02900209  RH  061%=      5-min Rain = 0
KOD1 170640Z 17010KT 29/21 A2993 RMK A01 T02900209  RH  062%=      5-min Rain = 0
KOD1 170641Z 17010KT 29/21 A2993 RMK A01 T02890208  RH  062%=      5-min Rain = 0
KOD1 170642Z 17010KT 29/21 A2993 RMK A01 T02900208  RH  062%=      5-min Rain = 0
KOD1 170643Z 17009KT 29/21 A2993 RMK A01 T02900208  RH  061%=      5-min Rain = 0
KOD1 170644Z 17010KT 29/21 A2993 RMK A01 T02900208  RH  062%=      5-min Rain = 0
KOD1 170645Z 16011KT 29/21 A2993 RMK A01 T02900208  RH  061%=      5-min Rain = 0
KOD1 170646Z 17010KT 29/21 A2993 RMK A01 T02900208  RH  061%=      5-min Rain = 0
KOD1 170647Z 16011KT 29/21 A2993 RMK A01 T02900208  RH  061%=      5-min Rain = 0
KOD1 170648Z 17011KT 29/21 A2993 RMK A01 T02900207  RH  061%=      5-min Rain = 0
KOD1 170649Z 17011KT 29/21 A2993 RMK A01 T02900208  RH  061%=      5-min Rain = 0
KOD1 170650Z 17009KT 29/21 A2993 RMK A01 T02900208  RH  061%=      5-min Rain = 0
KOD1 170651Z 17010KT 29/21 A2993 RMK A01 T02900208  RH  061%=      5-min Rain = 0
KOD1 170652Z 17011KT 29/21 A2993 RMK A01 T02900207  RH  061%=      5-min Rain = 0
KOD1 170653Z 16011KT 29/21 A2993 RMK A01 T02890207  RH  061%=      5-min Rain = 0
KOD1 170654Z 17010KT 29/21 A2993 RMK A01 T02900207  RH  061%=      5-min Rain = 0
KOD1 170655Z 17010KT 29/21 A2993 RMK A01 T02900207  RH  061%=      5-min Rain = 0
KOD1 170656Z 17009KT 29/21 A2993 RMK A01 T02890207  RH  061%=      5-min Rain = 0
KOD1 170657Z 17010KT 29/21 A2993 RMK A01 T02890207  RH  061%=      5-min Rain = 0
KOD1 170658Z 17011KT 29/21 A2993 RMK A01 T02890207  RH  061%=      5-min Rain = 0
KOD1 170659Z 17010KT 29/21 A2993 RMK A01 T02890206  RH  061%=      5-min Rain = 0
KOD1 170700Z 17011KT 29/21 A2993 RMK A01 T02890206  RH  061%=      5-min Rain = 0
KOD1 170701Z 17010KT 29/21 A2993 RMK A01 T02890206  RH  061%=      5-min Rain = 0
KOD1 170702Z 17010KT 29/21 A2993 RMK A01 T02890206  RH  061%=      5-min Rain = 0
KOD1 170703Z 17010KT 29/21 A2993 RMK A01 T02890206  RH  061%=      5-min Rain = 0
KOD1 170704Z 17010KT 29/21 A2993 RMK A01 T02880206  RH  061%=      5-min Rain = 0
KOD1 170705Z 17011KT 29/21 A2993 RMK A01 T02880206  RH  061%=      5-min Rain = 0
KOD1 170706Z 17011KT 29/21 A2993 RMK A01 T02890206  RH  061%=      5-min Rain = 0
KOD1 170707Z 17011KT 29/21 A2993 RMK A01 T02890206  RH  061%=      5-min Rain = 0
KOD1 170708Z 17011KT 29/21 A2993 RMK A01 T02890206  RH  061%=      5-min Rain = 0
KOD1 170709Z 17012KT 29/21 A2993 RMK A01 T02890206  RH  061%=      5-min Rain = 0
KOD1 170710Z 17010KT 29/21 A2993 RMK A01 T02900206  RH  061%=      5-min Rain = 0
KOD1 170711Z 17011KT 29/21 A2993 RMK A01 T02890206  RH  061%=      5-min Rain = 0
KOD1 170712Z 17009KT 29/21 A2993 RMK A01 T02890206  RH  061%=      5-min Rain = 0
KOD1 170713Z 17010KT 29/21 A2993 RMK A01 T02880205  RH  061%=      5-min Rain = 0
KOD1 170714Z 17012KT 29/21 A2993 RMK A01 T02880205  RH  061%=      5-min Rain = 0
KOD1 170715Z 17011KT 29/21 A2993 RMK A01 T02880205  RH  061%=      5-min Rain = 0
KOD1 170716Z 17010KT 29/21 A2993 RMK A01 T02880205  RH  061%=      5-min Rain = 0
KOD1 170717Z 17011KT 29/21 A2993 RMK A01 T02880205  RH  061%=      5-min Rain = 0
KOD1 170718Z 17011KT 29/21 A2993 RMK A01 T02870205  RH  061%=      5-min Rain = 0
KOD1 170719Z 16011KT 29/21 A2993 RMK A01 T02870205  RH  061%=      5-min Rain = 0
KOD1 170720Z 17011KT 29/21 A2992 RMK A01 T02860205  RH  061%=      5-min Rain = 0
KOD1 170721Z 17012KT 29/20 A2992 RMK A01 T02860204  RH  061%=      5-min Rain = 0
KOD1 170722Z 16009KT 29/21 A2992 RMK A01 T02860205  RH  061%=      5-min Rain = 0
KOD1 170723Z 17012KT 29/20 A2992 RMK A01 T02860204  RH  061%=      5-min Rain = 0
KOD1 170724Z 16010KT 29/21 A2992 RMK A01 T02860205  RH  061%=      5-min Rain = 0
KOD1 170725Z 17010KT 29/21 A2992 RMK A01 T02860205  RH  061%=      5-min Rain = 0
KOD1 170726Z 17012KT 29/20 A2992 RMK A01 T02860204  RH  061%=      5-min Rain = 0
KOD1 170727Z 17011KT 29/20 A2992 RMK A01 T02860204  RH  061%=      5-min Rain = 0
KOD1 170728Z 16011KT 29/20 A2992 RMK A01 T02860204  RH  061%=      5-min Rain = 0
KOD1 170729Z 17012KT 29/20 A2992 RMK A01 T02860204  RH  061%=      5-min Rain = 0
KOD1 170730Z 17011KT 29/20 A2992 RMK A01 T02860204  RH  061%=      5-min Rain = 0
KOD1 170731Z 17010KT 29/20 A2992 RMK A01 T02850204  RH  061%=      5-min Rain = 0
KOD1 170732Z 17010KT 29/20 A2992 RMK A01 T02850204  RH  062%=      5-min Rain = 0
KOD1 170733Z 16012KT 28/20 A2992 RMK A01 T02840203  RH  061%=      5-min Rain = 0
KOD1 170734Z 17011KT 29/20 A2992 RMK A01 T02850204  RH  061%=      5-min Rain = 0
KOD1 170735Z 17012KT 29/20 A2992 RMK A01 T02850203  RH  061%=      5-min Rain = 0
KOD1 170736Z 16011KT 29/20 A2992 RMK A01 T02860204  RH  061%=      5-min Rain = 0
KOD1 170737Z 16012KT 29/20 A2992 RMK A01 T02860203  RH  061%=      5-min Rain = 0
KOD1 170738Z 16014KT 29/20 A2992 RMK A01 T02850203  RH  061%=      5-min Rain = 0
KOD1 170739Z 17011KT 29/20 A2992 RMK A01 T02850203  RH  061%=      5-min Rain = 0
KOD1 170740Z 17012KT 29/20 A2992 RMK A01 T02850203  RH  061%=      5-min Rain = 0
KOD1 170741Z 16012KT 29/20 A2992 RMK A01 T02850203  RH  061%=      5-min Rain = 0
KOD1 170742Z 17010KT 29/20 A2992 RMK A01 T02850203  RH  061%=      5-min Rain = 0
KOD1 170743Z 16011KT 29/20 A2992 RMK A01 T02850203  RH  061%=      5-min Rain = 0
KOD1 170744Z 17012KT 28/20 A2992 RMK A01 T02840203  RH  061%=      5-min Rain = 0
KOD1 170745Z 16012KT 28/20 A2992 RMK A01 T02840203  RH  061%=      5-min Rain = 0
KOD1 170746Z 17011KT 28/20 A2992 RMK A01 T02840203  RH  061%=      5-min Rain = 0
KOD1 170747Z 17011KT 28/20 A2992 RMK A01 T02840202  RH  061%=      5-min Rain = 0
KOD1 170748Z 17011KT 28/20 A2992 RMK A01 T02840202  RH  061%=      5-min Rain = 0
KOD1 170749Z 17010KT 28/20 A2992 RMK A01 T02840202  RH  061%=      5-min Rain = 0
KOD1 170750Z 17012KT 28/20 A2992 RMK A01 T02830202  RH  061%=      5-min Rain = 0
KOD1 170751Z 17012KT 28/20 A2992 RMK A01 T02830202  RH  061%=      5-min Rain = 0
KOD1 170752Z 17011KT 28/20 A2992 RMK A01 T02830202  RH  061%=      5-min Rain = 0
KOD1 170753Z 17012KT 28/20 A2992 RMK A01 T02830202  RH  061%=      5-min Rain = 0
KOD1 170754Z 17011KT 28/20 A2992 RMK A01 T02830202  RH  061%=      5-min Rain = 0
KOD1 170755Z 17010KT 28/20 A2992 RMK A01 T02830202  RH  061%=      5-min Rain = 0
KOD1 170756Z 17012KT 28/20 A2992 RMK A01 T02830202  RH  061%=      5-min Rain = 0
KOD1 170757Z 17013KT 28/20 A2992 RMK A01 T02830202  RH  061%=      5-min Rain = 0
KOD1 170758Z 17012KT 28/20 A2992 RMK A01 T02840202  RH  061%=      5-min Rain = 0
KOD1 170759Z 17011KT 28/20 A2992 RMK A01 T02840202  RH  061%=      5-min Rain = 0
KOD1 170800Z 17011KT 28/20 A2992 RMK A01 T02840202  RH  061%=      5-min Rain = 0
KOD1 170801Z 17013KT 28/20 A2992 RMK A01 T02830202  RH  061%=      5-min Rain = 0
KOD1 170802Z 17013KT 28/20 A2991 RMK A01 T02830201  RH  061%=      5-min Rain = 0
KOD1 170803Z 17011KT 28/20 A2991 RMK A01 T02830201  RH  061%=      5-min Rain = 0
KOD1 170804Z 17011KT 28/20 A2991 RMK A01 T02840202  RH  061%=      5-min Rain = 0
KOD1 170805Z 17012KT 28/20 A2991 RMK A01 T02830201  RH  061%=      5-min Rain = 0
KOD1 170806Z 17010KT 28/20 A2991 RMK A01 T02830201  RH  061%=      5-min Rain = 0
KOD1 170807Z 17013KT 28/20 A2991 RMK A01 T02830201  RH  061%=      5-min Rain = 0
KOD1 170808Z 17012G17KT 28/20 A2991 RMK A01 T02830201  RH  061%=      5-min Rain = 0
KOD1 170809Z 17012KT 28/20 A2991 RMK A01 T02830201  RH  061%=      5-min Rain = 0
KOD1 170810Z 17012G17KT 28/20 A2992 RMK A01 T02830201  RH  061%=      5-min Rain = 0
KOD1 170811Z 17011KT 28/20 A2992 RMK A01 T02820201  RH  061%=      5-min Rain = 0
KOD1 170812Z 17011KT 28/20 A2992 RMK A01 T02820201  RH  061%=      5-min Rain = 0
KOD1 170813Z 17011KT 28/20 A2992 RMK A01 T02810201  RH  062%=      5-min Rain = 0
KOD1 170814Z 17011KT 28/20 A2992 RMK A01 T02810201  RH  062%=      5-min Rain = 0
KOD1 170815Z 17010KT 28/20 A2992 RMK A01 T02810201  RH  062%=      5-min Rain = 0
KOD1 170816Z 17010KT 28/20 A2992 RMK A01 T02800201  RH  062%=      5-min Rain = 0
KOD1 170817Z 17012KT 28/20 A2992 RMK A01 T02800201  RH  062%=      5-min Rain = 0
KOD1 170818Z 17013KT 28/20 A2992 RMK A01 T02810200  RH  062%=      5-min Rain = 0
KOD1 170819Z 17010KT 28/20 A2992 RMK A01 T02810200  RH  062%=      5-min Rain = 0
KOD1 170820Z 17011KT 28/20 A2992 RMK A01 T02800200  RH  062%=      5-min Rain = 0
KOD1 170821Z 17013KT 28/20 A2992 RMK A01 T02800200  RH  062%=      5-min Rain = 0
KOD1 170822Z 17011KT 28/20 A2992 RMK A01 T02810200  RH  061%=      5-min Rain = 0
KOD1 170823Z 17011KT 28/20 A2992 RMK A01 T02810200  RH  061%=      5-min Rain = 0
KOD1 170824Z 17010KT 28/20 A2992 RMK A01 T02810200  RH  061%=      5-min Rain = 0
KOD1 170825Z 17010KT 28/20 A2992 RMK A01 T02800201  RH  062%=      5-min Rain = 0
KOD1 170826Z 17010KT 28/20 A2992 RMK A01 T02800201  RH  062%=      5-min Rain = 0
KOD1 170827Z 17011KT 28/20 A2992 RMK A01 T02800200  RH  062%=      5-min Rain = 0
KOD1 170828Z 17010G15KT 28/20 A2992 RMK A01 T02800200  RH  062%=      5-min Rain = 0
KOD1 170829Z 17011KT 28/20 A2992 RMK A01 T02800201  RH  062%=      5-min Rain = 0
KOD1 170830Z 17012G17KT 28/20 A2992 RMK A01 T02800200  RH  062%=      5-min Rain = 0
KOD1 170831Z 16011KT 28/20 A2992 RMK A01 T02800200  RH  062%=      5-min Rain = 0
KOD1 170832Z 17010KT 28/20 A2992 RMK A01 T02800200  RH  062%=      5-min Rain = 0
KOD1 170833Z 17011KT 28/20 A2992 RMK A01 T02800200  RH  062%=      5-min Rain = 0
KOD1 170834Z 17010KT 28/20 A2992 RMK A01 T02800200  RH  062%=      5-min Rain = 0
KOD1 170835Z 16010KT 28/20 A2992 RMK A01 T02790201  RH  062%=      5-min Rain = 0
KOD1 170836Z 17011KT 28/20 A2992 RMK A01 T02790200  RH  062%=      5-min Rain = 0
KOD1 170837Z 17010KT 28/20 A2992 RMK A01 T02790200  RH  062%=      5-min Rain = 0
KOD1 170838Z 17009KT 28/20 A2992 RMK A01 T02780201  RH  063%=      5-min Rain = 0
KOD1 170839Z 17009KT 28/20 A2992 RMK A01 T02780200  RH  063%=      5-min Rain = 0
KOD1 170840Z 17010KT 28/20 A2992 RMK A01 T02770200  RH  063%=      5-min Rain = 0
KOD1 170841Z 16010KT 28/20 A2992 RMK A01 T02770200  RH  063%=      5-min Rain = 0
KOD1 170842Z 17011KT 28/20 A2992 RMK A01 T02770201  RH  063%=      5-min Rain = 0
KOD1 170843Z 17011KT 28/20 A2992 RMK A01 T02770200  RH  063%=      5-min Rain = 0
KOD1 170844Z 17011KT 28/20 A2992 RMK A01 T02770200  RH  063%=      5-min Rain = 0
KOD1 170845Z 16010KT 28/20 A2992 RMK A01 T02780200  RH  062%=      5-min Rain = 0
KOD1 170846Z 17010KT 28/20 A2992 RMK A01 T02780200  RH  063%=      5-min Rain = 0
KOD1 170847Z 17011KT 28/20 A2992 RMK A01 T02770200  RH  063%=      5-min Rain = 0
KOD1 170848Z 16010G15KT 28/20 A2992 RMK A01 T02760200  RH  063%=      5-min Rain = 0
KOD1 170849Z 17010G15KT 28/20 A2992 RMK A01 T02760200  RH  063%=      5-min Rain = 0
KOD1 170850Z 16010KT 28/20 A2992 RMK A01 T02760200  RH  063%=      5-min Rain = 0
KOD1 170851Z 16010KT 28/20 A2992 RMK A01 T02760200  RH  063%=      5-min Rain = 0
KOD1 170852Z 17010KT 28/20 A2992 RMK A01 T02760200  RH  063%=      5-min Rain = 0
KOD1 170853Z 17010KT 28/20 A2992 RMK A01 T02750200  RH  064%=      5-min Rain = 0
KOD1 170854Z 16010KT 28/20 A2992 RMK A01 T02760200  RH  063%=      5-min Rain = 0
KOD1 170855Z 16009KT 28/20 A2992 RMK A01 T02760200  RH  063%=      5-min Rain = 0
KOD1 170856Z 17009KT 28/20 A2992 RMK A01 T02760200  RH  063%=      5-min Rain = 0
KOD1 170857Z 17010KT 28/20 A2992 RMK A01 T02750200  RH  064%=      5-min Rain = 0
KOD1 170858Z 17009KT 28/20 A2992 RMK A01 T02750199  RH  064%=      5-min Rain = 0
KOD1 170859Z 16008KT 28/20 A2992 RMK A01 T02750200  RH  064%=      5-min Rain = 0
KOD1 170900Z 17010KT 27/20 A2992 RMK A01 T02740200  RH  064%=      5-min Rain = 0
KOD1 170901Z 17010KT 27/20 A2992 RMK A01 T02740199  RH  064%=      5-min Rain = 0
KOD1 170902Z 17010G15KT 27/20 A2992 RMK A01 T02740199  RH  064%=      5-min Rain = 0
KOD1 170903Z 17010KT 27/20 A2992 RMK A01 T02740199  RH  064%=      5-min Rain = 0
KOD1 170904Z 17010KT 27/20 A2992 RMK A01 T02740199  RH  064%=      5-min Rain = 0
KOD1 170905Z 17011KT 27/20 A2992 RMK A01 T02740199  RH  064%=      5-min Rain = 0
KOD1 170906Z 17011KT 27/20 A2992 RMK A01 T02740199  RH  063%=      5-min Rain = 0
KOD1 170907Z 17010KT 28/20 A2992 RMK A01 T02750199  RH  063%=      5-min Rain = 0
KOD1 170908Z 16010KT 28/20 A2992 RMK A01 T02750199  RH  063%=      5-min Rain = 0
KOD1 170909Z 16011KT 28/20 A2992 RMK A01 T02750199  RH  063%=      5-min Rain = 0
KOD1 170910Z 16011KT 28/20 A2992 RMK A01 T02750199  RH  063%=      5-min Rain = 0
KOD1 170911Z 17011KT 28/20 A2992 RMK A01 T02750199  RH  063%=      5-min Rain = 0
KOD1 170912Z 16012KT 28/20 A2992 RMK A01 T02750199  RH  063%=      5-min Rain = 0
KOD1 170913Z 16012KT 28/20 A2992 RMK A01 T02750199  RH  063%=      5-min Rain = 0
KOD1 170914Z 16010KT 28/20 A2992 RMK A01 T02750199  RH  063%=      5-min Rain = 0
KOD1 170915Z 16011KT 28/20 A2992 RMK A01 T02750199  RH  063%=      5-min Rain = 0
KOD1 170916Z 16011KT 27/20 A2992 RMK A01 T02740199  RH  064%=      5-min Rain = 0
KOD1 170917Z 16011KT 27/20 A2992 RMK A01 T02740199  RH  064%=      5-min Rain = 0
KOD1 170918Z 16010KT 27/20 A2992 RMK A01 T02730199  RH  064%=      5-min Rain = 0
KOD1 170919Z 16012KT 27/20 A2992 RMK A01 T02730199  RH  064%=      5-min Rain = 0
KOD1 170920Z 16011KT 27/20 A2992 RMK A01 T02730199  RH  064%=      5-min Rain = 0
KOD1 170921Z 16011KT 27/20 A2992 RMK A01 T02720199  RH  064%=      5-min Rain = 0
KOD1 170922Z 16011KT 27/20 A2992 RMK A01 T02730199  RH  064%=      5-min Rain = 0
KOD1 170923Z 16012KT 27/20 A2992 RMK A01 T02720199  RH  064%=      5-min Rain = 0
KOD1 170924Z 16011KT 27/20 A2992 RMK A01 T02720199  RH  064%=      5-min Rain = 0
KOD1 170925Z 16012KT 27/20 A2992 RMK A01 T02710199  RH  064%=      5-min Rain = 0
KOD1 170926Z 16012KT 27/20 A2992 RMK A01 T02710199  RH  064%=      5-min Rain = 0
KOD1 170927Z 16012KT 27/20 A2992 RMK A01 T02720199  RH  064%=      5-min Rain = 0
KOD1 170928Z 16011KT 27/20 A2992 RMK A01 T02710199  RH  065%=      5-min Rain = 0
KOD1 170929Z 17010KT 27/20 A2992 RMK A01 T02710199  RH  065%=      5-min Rain = 0
KOD1 170930Z 16012KT 27/20 A2992 RMK A01 T02700199  RH  065%=      5-min Rain = 0
KOD1 170931Z 16012KT 27/20 A2992 RMK A01 T02710198  RH  065%=      5-min Rain = 0
KOD1 170932Z 16011KT 27/20 A2992 RMK A01 T02710199  RH  065%=      5-min Rain = 0
KOD1 170933Z 16012KT 27/20 A2992 RMK A01 T02710199  RH  065%=      5-min Rain = 0
KOD1 170934Z 16013KT 27/20 A2992 RMK A01 T02710198  RH  065%=      5-min Rain = 0
KOD1 170935Z 16011KT 27/20 A2993 RMK A01 T02710198  RH  065%=      5-min Rain = 0
KOD1 170936Z 16011KT 27/20 A2993 RMK A01 T02710199  RH  065%=      5-min Rain = 0
KOD1 170937Z 16011KT 27/20 A2993 RMK A01 T02700199  RH  065%=      5-min Rain = 0
KOD1 170938Z 16011KT 27/20 A2993 RMK A01 T02700199  RH  065%=      5-min Rain = 0
KOD1 170939Z 16011KT 27/20 A2993 RMK A01 T02700199  RH  065%=      5-min Rain = 0
KOD1 170940Z 17011KT 27/20 A2993 RMK A01 T02700199  RH  065%=      5-min Rain = 0
KOD1 170941Z 16011KT 27/20 A2993 RMK A01 T02690199  RH  065%=      5-min Rain = 0
KOD1 170942Z 16010KT 27/20 A2993 RMK A01 T02690199  RH  065%=      5-min Rain = 0
KOD1 170943Z 16009KT 27/20 A2993 RMK A01 T02690199  RH  066%=      5-min Rain = 0
KOD1 170944Z 16009KT 27/20 A2993 RMK A01 T02680199  RH  066%=      5-min Rain = 0
KOD1 170945Z 16009KT 27/20 A2993 RMK A01 T02670199  RH  066%=      5-min Rain = 0
KOD1 170946Z 16010KT 27/20 A2993 RMK A01 T02670198  RH  066%=      5-min Rain = 0
KOD1 170947Z 16010KT 27/20 A2993 RMK A01 T02680198  RH  066%=      5-min Rain = 0
KOD1 170948Z 16010KT 27/20 A2993 RMK A01 T02680198  RH  066%=      5-min Rain = 0
KOD1 170949Z 17010KT 27/20 A2993 RMK A01 T02670198  RH  066%=      5-min Rain = 0
KOD1 170950Z 17011KT 27/20 A2993 RMK A01 T02670198  RH  066%=      5-min Rain = 0
KOD1 170951Z 17010G15KT 27/20 A2993 RMK A01 T02680198  RH  065%=      5-min Rain = 0
KOD1 170952Z 17009KT 27/20 A2993 RMK A01 T02690199  RH  065%=      5-min Rain = 0
KOD1 170953Z 17010KT 27/20 A2993 RMK A01 T02680198  RH  066%=      5-min Rain = 0
KOD1 170954Z 17010KT 27/20 A2993 RMK A01 T02680198  RH  066%=      5-min Rain = 0
KOD1 170955Z 17009KT 27/20 A2993 RMK A01 T02670198  RH  066%=      5-min Rain = 0
KOD1 170956Z 17011KT 27/20 A2993 RMK A01 T02670198  RH  066%=      5-min Rain = 0
KOD1 170957Z 17010KT 27/20 A2993 RMK A01 T02670198  RH  066%=      5-min Rain = 0
KOD1 170958Z 17011KT 27/20 A2993 RMK A01 T02680198  RH  066%=      5-min Rain = 0
KOD1 170959Z 17011KT 27/20 A2993 RMK A01 T02680198  RH  066%=      5-min Rain = 0
KOD1 171000Z 17011KT 27/20 A2993 RMK A01 T02680198  RH  065%=      5-min Rain = 0
KOD1 171001Z 17010KT 27/20 A2993 RMK A01 T02690198  RH  065%=      5-min Rain = 0
KOD1 171002Z 17010KT 27/20 A2993 RMK A01 T02680198  RH  066%=      5-min Rain = 0
KOD1 171003Z 17011KT 27/20 A2993 RMK A01 T02670198  RH  066%=      5-min Rain = 0
KOD1 171004Z 17011KT 27/20 A2993 RMK A01 T02670198  RH  066%=      5-min Rain = 0
KOD1 171005Z 17010KT 27/20 A2993 RMK A01 T02670198  RH  066%=      5-min Rain = 0
KOD1 171006Z 17011KT 27/20 A2993 RMK A01 T02670198  RH  066%=      5-min Rain = 0
KOD1 171007Z 17010KT 27/20 A2993 RMK A01 T02670198  RH  066%=      5-min Rain = 0
KOD1 171008Z 16010KT 27/20 A2993 RMK A01 T02660198  RH  066%=      5-min Rain = 0
KOD1 171009Z 16010KT 27/20 A2993 RMK A01 T02660198  RH  066%=      5-min Rain = 0
KOD1 171010Z 16011KT 27/20 A2993 RMK A01 T02660198  RH  066%=      5-min Rain = 0
KOD1 171011Z 16011KT 27/20 A2993 RMK A01 T02660198  RH  066%=      5-min Rain = 0
KOD1 171012Z 17012KT 27/20 A2993 RMK A01 T02660198  RH  066%=      5-min Rain = 0
KOD1 171013Z 16011KT 27/20 A2993 RMK A01 T02650198  RH  066%=      5-min Rain = 0
KOD1 171014Z 17011KT 27/20 A2993 RMK A01 T02650198  RH  067%=      5-min Rain = 0
KOD1 171015Z 17010KT 27/20 A2993 RMK A01 T02650198  RH  067%=      5-min Rain = 0
KOD1 171016Z 17010KT 27/20 A2993 RMK A01 T02650198  RH  067%=      5-min Rain = 0
KOD1 171017Z 17011G16KT 27/20 A2993 RMK A01 T02650198  RH  067%=      5-min Rain = 0
KOD1 171018Z 17011KT 27/20 A2993 RMK A01 T02650198  RH  066%=      5-min Rain = 0
KOD1 171019Z 16010KT 27/20 A2993 RMK A01 T02650198  RH  066%=      5-min Rain = 0
KOD1 171020Z 17012KT 27/20 A2993 RMK A01 T02650198  RH  067%=      5-min Rain = 0
KOD1 171021Z 17011KT 27/20 A2993 RMK A01 T02650197  RH  066%=      5-min Rain = 0
KOD1 171022Z 17010KT 27/20 A2993 RMK A01 T02650198  RH  066%=      5-min Rain = 0
KOD1 171023Z 17012KT 27/20 A2993 RMK A01 T02650197  RH  067%=      5-min Rain = 0
KOD1 171024Z 17011KT 27/20 A2993 RMK A01 T02650197  RH  066%=      5-min Rain = 0
KOD1 171025Z 17009KT 27/20 A2993 RMK A01 T02660198  RH  066%=      5-min Rain = 0
KOD1 171026Z 17009KT 27/20 A2993 RMK A01 T02650198  RH  067%=      5-min Rain = 0
KOD1 171027Z 17011KT 26/20 A2993 RMK A01 T02640197  RH  067%=      5-min Rain = 0
KOD1 171028Z 17011KT 26/20 A2993 RMK A01 T02640197  RH  067%=      5-min Rain = 0
KOD1 171029Z 17010KT 26/20 A2993 RMK A01 T02640197  RH  067%=      5-min Rain = 0
KOD1 171030Z 17010KT 26/20 A2993 RMK A01 T02640197  RH  067%=      5-min Rain = 0
KOD1 171031Z 17009KT 26/20 A2993 RMK A01 T02640198  RH  067%=      5-min Rain = 0
KOD1 171032Z 18010KT 26/20 A2993 RMK A01 T02630197  RH  067%=      5-min Rain = 0
KOD1 171033Z 17011KT 26/20 A2993 RMK A01 T02640197  RH  067%=      5-min Rain = 0
KOD1 171034Z 17010KT 26/20 A2994 RMK A01 T02640197  RH  067%=      5-min Rain = 0
KOD1 171035Z 17010KT 26/20 A2994 RMK A01 T02640197  RH  067%=      5-min Rain = 0
KOD1 171036Z 17010KT 26/20 A2994 RMK A01 T02640197  RH  067%=      5-min Rain = 0
KOD1 171037Z 17011KT 26/20 A2994 RMK A01 T02640197  RH  067%=      5-min Rain = 0
KOD1 171038Z 17009KT 26/20 A2994 RMK A01 T02640197  RH  067%=      5-min Rain = 0
KOD1 171039Z 17011KT 26/20 A2994 RMK A01 T02640197  RH  067%=      5-min Rain = 0
KOD1 171040Z 18011KT 26/20 A2994 RMK A01 T02640197  RH  067%=      5-min Rain = 0
KOD1 171041Z 17010KT 26/20 A2994 RMK A01 T02640197  RH  067%=      5-min Rain = 0
KOD1 171042Z 17010KT 26/20 A2994 RMK A01 T02640197  RH  067%=      5-min Rain = 0
KOD1 171043Z 17010KT 26/20 A2994 RMK A01 T02640197  RH  067%=      5-min Rain = 0
KOD1 171044Z 17010KT 26/20 A2994 RMK A01 T02640197  RH  067%=      5-min Rain = 0
KOD1 171045Z 17012KT 26/20 A2994 RMK A01 T02640197  RH  067%=      5-min Rain = 0
KOD1 171046Z 17009KT 27/20 A2994 RMK A01 T02650197  RH  066%=      5-min Rain = 0
KOD1 171047Z 17009KT 26/20 A2994 RMK A01 T02640197  RH  067%=      5-min Rain = 0
KOD1 171048Z 18010KT 26/20 A2994 RMK A01 T02630197  RH  067%=      5-min Rain = 0
KOD1 171049Z 17010G16KT 26/20 A2994 RMK A01 T02630197  RH  067%=      5-min Rain = 0
KOD1 171050Z 18010KT 26/20 A2994 RMK A01 T02640197  RH  067%=      5-min Rain = 0
KOD1 171051Z 18009KT 26/20 A2994 RMK A01 T02640197  RH  067%=      5-min Rain = 0
KOD1 171052Z 17009KT 26/20 A2994 RMK A01 T02630197  RH  067%=      5-min Rain = 0
KOD1 171053Z 17009KT 26/20 A2994 RMK A01 T02630197  RH  067%=      5-min Rain = 0
KOD1 171054Z 18011KT 26/20 A2994 RMK A01 T02630197  RH  067%=      5-min Rain = 0
KOD1 171055Z 18010KT 26/20 A2994 RMK A01 T02630197  RH  067%=      5-min Rain = 0
KOD1 171056Z 17010KT 26/20 A2994 RMK A01 T02630197  RH  067%=      5-min Rain = 0
KOD1 171057Z 18010KT 26/20 A2994 RMK A01 T02630197  RH  067%=      5-min Rain = 0
KOD1 171058Z 18010KT 26/20 A2994 RMK A01 T02630197  RH  067%=      5-min Rain = 0
KOD1 171059Z 18010KT 26/20 A2994 RMK A01 T02630197  RH  067%=      5-min Rain = 0
KOD1 171100Z 18009KT 26/20 A2994 RMK A01 T02620197  RH  067%=      5-min Rain = 0
KOD1 171101Z 17010KT 26/20 A2994 RMK A01 T02620197  RH  067%=      5-min Rain = 0
KOD1 171102Z 17009KT 26/20 A2994 RMK A01 T02620197  RH  067%=      5-min Rain = 0
KOD1 171103Z 18009KT 26/20 A2994 RMK A01 T02610197  RH  068%=      5-min Rain = 0
KOD1 171104Z 17011KT 26/20 A2994 RMK A01 T02610197  RH  068%=      5-min Rain = 0
KOD1 171105Z 18009KT 26/20 A2994 RMK A01 T02610197  RH  068%=      5-min Rain = 0
KOD1 171106Z 17010KT 26/20 A2994 RMK A01 T02610197  RH  068%=      5-min Rain = 0
KOD1 171107Z 18009KT 26/20 A2994 RMK A01 T02610197  RH  068%=      5-min Rain = 0
KOD1 171108Z 17010KT 26/20 A2994 RMK A01 T02610197  RH  068%=      5-min Rain = 0
KOD1 171109Z 18010KT 26/20 A2994 RMK A01 T02610197  RH  068%=      5-min Rain = 0
KOD1 171110Z 18011KT 26/20 A2995 RMK A01 T02610197  RH  068%=      5-min Rain = 0
KOD1 171111Z 18009KT 26/20 A2995 RMK A01 T02610197  RH  068%=      5-min Rain = 0
KOD1 171112Z 17010KT 26/20 A2995 RMK A01 T02610197  RH  068%=      5-min Rain = 0
KOD1 171113Z 18010KT 26/20 A2995 RMK A01 T02610197  RH  068%=      5-min Rain = 0
KOD1 171114Z 18010KT 26/20 A2995 RMK A01 T02610197  RH  068%=      5-min Rain = 0
KOD1 171115Z 18009KT 26/20 A2995 RMK A01 T02610197  RH  068%=      5-min Rain = 0
KOD1 171116Z 17008KT 26/20 A2995 RMK A01 T02610197  RH  068%=      5-min Rain = 0
KOD1 171117Z 18009KT 26/20 A2995 RMK A01 T02600197  RH  068%=      5-min Rain = 0
KOD1 171118Z 18008KT 26/20 A2995 RMK A01 T02600197  RH  068%=      5-min Rain = 0
KOD1 171119Z 18010KT 26/20 A2995 RMK A01 T02600197  RH  068%=      5-min Rain = 0
KOD1 171120Z 18011KT 26/20 A2995 RMK A01 T02600197  RH  068%=      5-min Rain = 0
KOD1 171121Z 18010KT 26/20 A2995 RMK A01 T02610197  RH  068%=      5-min Rain = 0
KOD1 171122Z 18010KT 26/20 A2995 RMK A01 T02610197  RH  068%=      5-min Rain = 0
KOD1 171123Z 18010KT 26/20 A2995 RMK A01 T02610197  RH  068%=      5-min Rain = 0
KOD1 171124Z 18010KT 26/20 A2995 RMK A01 T02610197  RH  068%=      5-min Rain = 0
KOD1 171125Z 18011KT 26/20 A2995 RMK A01 T02610197  RH  068%=      5-min Rain = 0
KOD1 171126Z 18010KT 26/20 A2995 RMK A01 T02610197  RH  068%=      5-min Rain = 0
KOD1 171127Z 18010KT 26/20 A2995 RMK A01 T02610198  RH  068%=      5-min Rain = 0
KOD1 171128Z 18010KT 26/20 A2995 RMK A01 T02610198  RH  068%=      5-min Rain = 0
KOD1 171129Z 18010KT 26/20 A2995 RMK A01 T02600198  RH  068%=      5-min Rain = 0
KOD1 171130Z 18009KT 26/20 A2995 RMK A01 T02600198  RH  068%=      5-min Rain = 0
KOD1 171131Z 18010KT 26/20 A2995 RMK A01 T02600198  RH  069%=      5-min Rain = 0
KOD1 171132Z 18008KT 26/20 A2995 RMK A01 T02600198  RH  069%=      5-min Rain = 0
KOD1 171133Z 19009KT 26/20 A2995 RMK A01 T02600198  RH  069%=      5-min Rain = 0
KOD1 171134Z 18010KT 26/20 A2995 RMK A01 T02600198  RH  069%=      5-min Rain = 0
KOD1 171135Z 18009KT 26/20 A2995 RMK A01 T02600198  RH  069%=      5-min Rain = 0
KOD1 171136Z 17009KT 26/20 A2995 RMK A01 T02590198  RH  069%=      5-min Rain = 0
KOD1 171137Z 18010KT 26/20 A2995 RMK A01 T02590198  RH  069%=      5-min Rain = 0
KOD1 171138Z 18012KT 26/20 A2995 RMK A01 T02600198  RH  069%=      5-min Rain = 0
KOD1 171139Z 18009KT 26/20 A2995 RMK A01 T02600198  RH  069%=      5-min Rain = 0
KOD1 171140Z 18010KT 26/20 A2995 RMK A01 T02600198  RH  069%=      5-min Rain = 0
KOD1 171141Z 18010KT 26/20 A2995 RMK A01 T02600198  RH  069%=      5-min Rain = 0
KOD1 171142Z 18011KT 26/20 A2995 RMK A01 T02600198  RH  069%=      5-min Rain = 0
KOD1 171143Z 18010KT 26/20 A2995 RMK A01 T02600198  RH  069%=      5-min Rain = 0
KOD1 171144Z 18011KT 26/20 A2995 RMK A01 T02600198  RH  069%=      5-min Rain = 0
KOD1 171145Z 18010KT 26/20 A2995 RMK A01 T02610199  RH  069%=      5-min Rain = 0
KOD1 171146Z 18010KT 26/20 A2995 RMK A01 T02610199  RH  069%=      5-min Rain = 0
KOD1 171147Z 18010KT 26/20 A2995 RMK A01 T02600198  RH  069%=      5-min Rain = 0
KOD1 171148Z 17009KT 26/20 A2995 RMK A01 T02600198  RH  069%=      5-min Rain = 0
KOD1 171149Z 18011KT 26/20 A2995 RMK A01 T02600199  RH  069%=      5-min Rain = 0
KOD1 171150Z 17010KT 26/20 A2995 RMK A01 T02600199  RH  069%=      5-min Rain = 0
KOD1 171151Z 17011KT 26/20 A2995 RMK A01 T02600198  RH  069%=      5-min Rain = 0
KOD1 171152Z 18009KT 26/20 A2995 RMK A01 T02600199  RH  069%=      5-min Rain = 0
KOD1 171153Z 18008KT 26/20 A2995 RMK A01 T02600199  RH  069%=      5-min Rain = 0
KOD1 171154Z 17010KT 26/20 A2995 RMK A01 T02590199  RH  069%=      5-min Rain = 0
KOD1 171155Z 18011KT 26/20 A2995 RMK A01 T02590199  RH  069%=      5-min Rain = 0
KOD1 171156Z 17011KT 26/20 A2995 RMK A01 T02600199  RH  069%=      5-min Rain = 0
KOD1 171157Z 18010KT 26/20 A2995 RMK A01 T02600199  RH  069%=      5-min Rain = 0
KOD1 171158Z 18010KT 26/20 A2995 RMK A01 T02600199  RH  069%=      5-min Rain = 0
KOD1 171159Z 18009KT 26/20 A2995 RMK A01 T02600199  RH  069%=      5-min Rain = 0
KOD1 171200Z 18010KT 26/20 A2995 RMK A01 T02600199  RH  069%=      5-min Rain = 0
KOD1 171201Z 18010KT 26/20 A2995 RMK A01 T02600199  RH  069%=      5-min Rain = 0
KOD1 171202Z 18010KT 26/20 A2995 RMK A01 T02600200  RH  069%=      5-min Rain = 0
KOD1 171203Z 17009KT 26/20 A2995 RMK A01 T02600200  RH  069%=      5-min Rain = 0
KOD1 171204Z 18011KT 26/20 A2995 RMK A01 T02600200  RH  069%=      5-min Rain = 0
KOD1 171205Z 18010KT 26/20 A2995 RMK A01 T02610200  RH  069%=      5-min Rain = 0
KOD1 171206Z 17012KT 26/20 A2995 RMK A01 T02610200  RH  069%=      5-min Rain = 0
KOD1 171207Z 18009KT 26/20 A2995 RMK A01 T02610200  RH  069%=      5-min Rain = 0
KOD1 171208Z 18011KT 26/20 A2996 RMK A01 T02610200  RH  069%=      5-min Rain = 0
KOD1 171209Z 18009KT 26/20 A2996 RMK A01 T02610200  RH  069%=      5-min Rain = 0
KOD1 171210Z 18010KT 26/20 A2996 RMK A01 T02610201  RH  069%=      5-min Rain = 0
KOD1 171211Z 18009KT 26/20 A2996 RMK A01 T02610201  RH  069%=      5-min Rain = 0
KOD1 171212Z 18011KT 26/20 A2996 RMK A01 T02610201  RH  069%=      5-min Rain = 0
KOD1 171213Z 18009KT 26/20 A2996 RMK A01 T02620201  RH  069%=      5-min Rain = 0
KOD1 171214Z 18009KT 26/20 A2996 RMK A01 T02620201  RH  069%=      5-min Rain = 0
KOD1 171215Z 18010KT 26/20 A2996 RMK A01 T02620201  RH  069%=      5-min Rain = 0
KOD1 171216Z 19009KT 26/20 A2996 RMK A01 T02620201  RH  069%=      5-min Rain = 0
KOD1 171217Z 18011KT 26/20 A2996 RMK A01 T02620201  RH  069%=      5-min Rain = 0
KOD1 171218Z 18009KT 26/20 A2996 RMK A01 T02630201  RH  069%=      5-min Rain = 0
KOD1 171219Z 18009KT 26/20 A2996 RMK A01 T02630202  RH  069%=      5-min Rain = 0
KOD1 171220Z 18009KT 26/20 A2996 RMK A01 T02630202  RH  069%=      5-min Rain = 0
KOD1 171221Z 18012KT 26/20 A2996 RMK A01 T02630202  RH  069%=      5-min Rain = 0
KOD1 171222Z 18010KT 26/20 A2996 RMK A01 T02630202  RH  069%=      5-min Rain = 0
KOD1 171223Z 18009KT 26/20 A2996 RMK A01 T02630202  RH  069%=      5-min Rain = 0
KOD1 171224Z 18010KT 26/20 A2996 RMK A01 T02630203  RH  069%=      5-min Rain = 0
KOD1 171225Z 18009KT 26/20 A2996 RMK A01 T02630202  RH  069%=      5-min Rain = 0
KOD1 171226Z 18010KT 26/20 A2996 RMK A01 T02630202  RH  069%=      5-min Rain = 0
KOD1 171227Z 17010KT 26/20 A2996 RMK A01 T02630203  RH  069%=      5-min Rain = 0
KOD1 171228Z 18010KT 26/20 A2996 RMK A01 T02630203  RH  069%=      5-min Rain = 0
KOD1 171229Z 18009KT 26/20 A2996 RMK A01 T02630203  RH  069%=      5-min Rain = 0
KOD1 171230Z 18010KT 26/20 A2996 RMK A01 T02630203  RH  069%=      5-min Rain = 0
KOD1 171231Z 18011KT 26/20 A2996 RMK A01 T02630203  RH  069%=      5-min Rain = 0
KOD1 171232Z 18010KT 26/20 A2996 RMK A01 T02630203  RH  069%=      5-min Rain = 0
KOD1 171233Z 18010KT 26/20 A2996 RMK A01 T02630203  RH  070%=      5-min Rain = 0
KOD1 171234Z 18010KT 26/20 A2996 RMK A01 T02630203  RH  069%=      5-min Rain = 0
KOD1 171235Z 18010KT 26/20 A2996 RMK A01 T02630203  RH  069%=      5-min Rain = 0
KOD1 171236Z 18011KT 26/20 A2996 RMK A01 T02640203  RH  069%=      5-min Rain = 0
KOD1 171237Z 18009KT 26/20 A2996 RMK A01 T02640203  RH  069%=      5-min Rain = 0
KOD1 171238Z 18008KT 26/20 A2997 RMK A01 T02640204  RH  070%=      5-min Rain = 0
KOD1 171239Z 19010KT 26/20 A2997 RMK A01 T02640204  RH  069%=      5-min Rain = 0
KOD1 171240Z 18008KT 27/20 A2997 RMK A01 T02650204  RH  069%=      5-min Rain = 0
KOD1 171241Z 18008KT 27/21 A2997 RMK A01 T02650205  RH  070%=      5-min Rain = 0
KOD1 171242Z 18007G12KT 27/21 A2997 RMK A01 T02650205  RH  070%=      5-min Rain = 0
KOD1 171243Z 18010KT 27/21 A2997 RMK A01 T02650205  RH  069%=      5-min Rain = 0
KOD1 171244Z 17009KT 27/21 A2997 RMK A01 T02660205  RH  069%=      5-min Rain = 0
KOD1 171245Z 18010KT 27/21 A2997 RMK A01 T02660205  RH  069%=      5-min Rain = 0
KOD1 171246Z 18010KT 27/21 A2997 RMK A01 T02660205  RH  069%=      5-min Rain = 0
KOD1 171247Z 19008KT 27/21 A2997 RMK A01 T02670205  RH  069%=      5-min Rain = 0
KOD1 171248Z 18009KT 27/21 A2997 RMK A01 T02670206  RH  069%=      5-min Rain = 0
KOD1 171249Z 18009KT 27/21 A2997 RMK A01 T02680206  RH  069%=      5-min Rain = 0
KOD1 171250Z 18008KT 27/21 A2997 RMK A01 T02680206  RH  069%=      5-min Rain = 0
KOD1 171251Z 18010KT 27/21 A2997 RMK A01 T02680206  RH  069%=      5-min Rain = 0
KOD1 171252Z 18008KT 27/21 A2997 RMK A01 T02690206  RH  068%=      5-min Rain = 0
KOD1 171253Z 18009KT 27/21 A2997 RMK A01 T02690206  RH  069%=      5-min Rain = 0
KOD1 171254Z 18009KT 27/21 A2997 RMK A01 T02690206  RH  068%=      5-min Rain = 0
KOD1 171255Z 18009KT 27/21 A2997 RMK A01 T02690207  RH  069%=      5-min Rain = 0
KOD1 171256Z 18009KT 27/21 A2997 RMK A01 T02690207  RH  069%=      5-min Rain = 0
KOD1 171257Z 18012KT 27/21 A2997 RMK A01 T02700206  RH  068%=      5-min Rain = 0
KOD1 171258Z 18012KT 27/21 A2997 RMK A01 T02690206  RH  068%=      5-min Rain = 0
KOD1 171259Z 18011KT 27/21 A2997 RMK A01 T02690206  RH  068%=      5-min Rain = 0
KOD1 171300Z 18013KT 27/21 A2997 RMK A01 T02700206  RH  068%=      5-min Rain = 0
KOD1 171301Z 18011KT 27/21 A2997 RMK A01 T02700207  RH  068%=      5-min Rain = 0
KOD1 171302Z 19010KT 27/21 A2997 RMK A01 T02710208  RH  068%=      5-min Rain = 0
KOD1 171303Z 18010KT 27/21 A2997 RMK A01 T02720208  RH  068%=      5-min Rain = 0
KOD1 171304Z 18011KT 27/21 A2997 RMK A01 T02720208  RH  068%=      5-min Rain = 0
KOD1 171305Z 18011KT 27/21 A2997 RMK A01 T02720208  RH  068%=      5-min Rain = 0
KOD1 171306Z 19011KT 27/21 A2997 RMK A01 T02720208  RH  068%=      5-min Rain = 0
KOD1 171307Z 19009KT 27/21 A2997 RMK A01 T02720208  RH  068%=      5-min Rain = 0
KOD1 171308Z 19010KT 27/21 A2997 RMK A01 T02730209  RH  068%=      5-min Rain = 0
KOD1 171309Z 19011KT 27/21 A2997 RMK A01 T02730208  RH  068%=      5-min Rain = 0
KOD1 171310Z 18010KT 27/21 A2997 RMK A01 T02740209  RH  068%=      5-min Rain = 0
KOD1 171311Z 19010KT 27/21 A2997 RMK A01 T02740208  RH  068%=      5-min Rain = 0
KOD1 171312Z 19012KT 27/21 A2997 RMK A01 T02740208  RH  067%=      5-min Rain = 0
KOD1 171313Z 18010KT 27/21 A2997 RMK A01 T02740208  RH  067%=      5-min Rain = 0
KOD1 171314Z 20010KT 27/21 A2997 RMK A01 T02740208  RH  068%=      5-min Rain = 0
KOD1 171315Z 19009KT 27/21 A2998 RMK A01 T02740210  RH  068%=      5-min Rain = 0
KOD1 171316Z 19010KT 28/21 A2998 RMK A01 T02750209  RH  067%=      5-min Rain = 0
KOD1 171317Z 18010KT 28/21 A2998 RMK A01 T02750209  RH  067%=      5-min Rain = 0
KOD1 171318Z 19008KT 28/21 A2998 RMK A01 T02760210  RH  067%=      5-min Rain = 0
KOD1 171319Z 19009KT 28/21 A2998 RMK A01 T02770211  RH  067%=      5-min Rain = 0
KOD1 171320Z 19011KT 28/21 A2998 RMK A01 T02770210  RH  067%=      5-min Rain = 0
KOD1 171321Z 20011KT 28/21 A2998 RMK A01 T02760210  RH  067%=      5-min Rain = 0
KOD1 171322Z 18010KT 28/21 A2998 RMK A01 T02760210  RH  067%=      5-min Rain = 0
KOD1 171323Z 19011KT 28/21 A2998 RMK A01 T02760210  RH  067%=      5-min Rain = 0
KOD1 171324Z 18009KT 28/21 A2998 RMK A01 T02770211  RH  067%=      5-min Rain = 0
KOD1 171325Z 18009KT 28/21 A2998 RMK A01 T02770210  RH  067%=      5-min Rain = 0
KOD1 171326Z 19009KT 28/21 A2998 RMK A01 T02780211  RH  067%=      5-min Rain = 0
KOD1 171327Z 19009KT 28/21 A2998 RMK A01 T02780211  RH  067%=      5-min Rain = 0
KOD1 171328Z 18010KT 28/21 A2998 RMK A01 T02780211  RH  067%=      5-min Rain = 0
KOD1 171329Z 19009KT 28/21 A2998 RMK A01 T02790212  RH  067%=      5-min Rain = 0
KOD1 171330Z 18010KT 28/21 A2998 RMK A01 T02790212  RH  067%=      5-min Rain = 0
KOD1 171331Z 19011KT 28/21 A2998 RMK A01 T02790211  RH  066%=      5-min Rain = 0
KOD1 171332Z 20011KT 28/21 A2998 RMK A01 T02790211  RH  067%=      5-min Rain = 0
KOD1 171333Z 19011KT 28/21 A2998 RMK A01 T02790211  RH  066%=      5-min Rain = 0
KOD1 171334Z 19012KT 28/21 A2998 RMK A01 T02790211  RH  066%=      5-min Rain = 0
KOD1 171335Z 19009KT 28/21 A2998 RMK A01 T02790211  RH  067%=      5-min Rain = 0
KOD1 171336Z 19011KT 28/21 A2998 RMK A01 T02800212  RH  067%=      5-min Rain = 0
KOD1 171337Z 19009KT 28/21 A2998 RMK A01 T02810212  RH  066%=      5-min Rain = 0
KOD1 171338Z 19008KT 28/21 A2998 RMK A01 T02810213  RH  067%=      5-min Rain = 0
KOD1 171339Z 19011KT 28/21 A2998 RMK A01 T02830213  RH  066%=      5-min Rain = 0
KOD1 171340Z 20012KT 28/21 A2998 RMK A01 T02820212  RH  066%=      5-min Rain = 0
KOD1 171341Z 19011KT 28/21 A2998 RMK A01 T02810212  RH  066%=      5-min Rain = 0
KOD1 171342Z 19012KT 28/21 A2998 RMK A01 T02810212  RH  066%=      5-min Rain = 0
KOD1 171343Z 19010KT 28/21 A2998 RMK A01 T02810212  RH  066%=      5-min Rain = 0
KOD1 171344Z 19012KT 28/21 A2998 RMK A01 T02810212  RH  066%=      5-min Rain = 0
KOD1 171345Z 19010KT 28/21 A2998 RMK A01 T02810212  RH  066%=      5-min Rain = 0
KOD1 171346Z 19010KT 28/21 A2998 RMK A01 T02830214  RH  066%=      5-min Rain = 0
KOD1 171347Z 19013KT 28/21 A2998 RMK A01 T02840212  RH  065%=      5-min Rain = 0
KOD1 171348Z 19012KT 28/21 A2998 RMK A01 T02830212  RH  065%=      5-min Rain = 0
KOD1 171349Z 19010KT 28/21 A2998 RMK A01 T02830212  RH  065%=      5-min Rain = 0
KOD1 171350Z 20012KT 28/21 A2998 RMK A01 T02840213  RH  065%=      5-min Rain = 0
KOD1 171351Z 19012KT 28/21 A2998 RMK A01 T02840212  RH  065%=      5-min Rain = 0
KOD1 171352Z 19012KT 28/21 A2998 RMK A01 T02840211  RH  065%=      5-min Rain = 0
KOD1 171353Z 20010KT 29/21 A2998 RMK A01 T02850214  RH  065%=      5-min Rain = 0
KOD1 171354Z 20009KT 29/22 A2998 RMK A01 T02870215  RH  065%=      5-min Rain = 0
KOD1 171355Z 20010KT 29/22 A2998 RMK A01 T02880215  RH  065%=      5-min Rain = 0
KOD1 171356Z 19010KT 29/22 A2998 RMK A01 T02890215  RH  064%=      5-min Rain = 0
KOD1 171357Z 20010KT 29/22 A2998 RMK A01 T02900215  RH  064%=      5-min Rain = 0
KOD1 171358Z 20010KT 29/22 A2998 RMK A01 T02890215  RH  064%=      5-min Rain = 0
KOD1 171359Z 19009KT 29/22 A2998 RMK A01 T02900216  RH  064%=      5-min Rain = 0
KOD1 171400Z 20013KT 29/22 A2998 RMK A01 T02910215  RH  063%=      5-min Rain = 0
KOD1 171401Z 20011KT 29/21 A2998 RMK A01 T02910214  RH  063%=      5-min Rain = 0
KOD1 171402Z 20011KT 29/22 A2998 RMK A01 T02910215  RH  063%=      5-min Rain = 0
KOD1 171403Z 20011KT 29/22 A2998 RMK A01 T02910215  RH  063%=      5-min Rain = 0
KOD1 171404Z 19010KT 29/22 A2998 RMK A01 T02920216  RH  063%=      5-min Rain = 0
KOD1 171405Z 19010KT 29/22 A2998 RMK A01 T02940217  RH  063%=      5-min Rain = 0
KOD1 171406Z 20012KT 30/22 A2998 RMK A01 T02960216  RH  062%=      5-min Rain = 0
KOD1 171407Z 19012KT 30/22 A2998 RMK A01 T02960216  RH  062%=      5-min Rain = 0
KOD1 171408Z 19013KT 30/22 A2998 RMK A01 T02960216  RH  062%=      5-min Rain = 0
KOD1 171409Z 20012KT 30/22 A2998 RMK A01 T02970215  RH  061%=      5-min Rain = 0
KOD1 171410Z 20011KT 30/22 A2998 RMK A01 T02960216  RH  062%=      5-min Rain = 0
KOD1 171411Z 20011KT 30/22 A2998 RMK A01 T02970217  RH  062%=      5-min Rain = 0
KOD1 171412Z 20012KT 30/22 A2998 RMK A01 T02970215  RH  062%=      5-min Rain = 0
KOD1 171413Z 19013KT 30/22 A2998 RMK A01 T02970216  RH  062%=      5-min Rain = 0
KOD1 171414Z 19012KT 30/22 A2998 RMK A01 T02980217  RH  062%=      5-min Rain = 0
KOD1 171415Z 20015KT 30/22 A2998 RMK A01 T02990215  RH  061%=      5-min Rain = 0
KOD1 171416Z 20012KT 30/22 A2998 RMK A01 T02990215  RH  061%=      5-min Rain = 0
KOD1 171417Z 20013KT 30/22 A2998 RMK A01 T03000215  RH  061%=      5-min Rain = 0
KOD1 171418Z 20013KT 30/22 A2998 RMK A01 T03000215  RH  060%=      5-min Rain = 0
KOD1 171419Z 21013G19KT 30/22 A2998 RMK A01 T03010215  RH  060%=      5-min Rain = 0
KOD1 171420Z 21012KT 30/22 A2998 RMK A01 T03020216  RH  060%=      5-min Rain = 0
KOD1 171421Z 21014KT 30/22 A2998 RMK A01 T03030216  RH  060%=      5-min Rain = 0
KOD1 171422Z 20011KT 30/22 A2998 RMK A01 T03020215  RH  060%=      5-min Rain = 0
KOD1 171423Z 20012KT 30/22 A2998 RMK A01 T03030217  RH  060%=      5-min Rain = 0
KOD1 171424Z 19011KT 30/22 A2998 RMK A01 T03040217  RH  060%=      5-min Rain = 0
KOD1 171425Z 20013KT 31/22 A2998 RMK A01 T03050217  RH  059%=      5-min Rain = 0
KOD1 171426Z 21015KT 31/22 A2998 RMK A01 T03050216  RH  059%=      5-min Rain = 0
KOD1 171427Z 21013KT 30/22 A2998 RMK A01 T03040215  RH  059%=      5-min Rain = 0
KOD1 171428Z 20013KT 30/22 A2998 RMK A01 T03040217  RH  059%=      5-min Rain = 0
KOD1 171429Z 20015KT 31/22 A2998 RMK A01 T03060215  RH  059%=      5-min Rain = 0
KOD1 171430Z 20015KT 30/21 A2998 RMK A01 T03040214  RH  058%=      5-min Rain = 0
KOD1 171431Z 21017G22KT 30/21 A2998 RMK A01 T03040213  RH  059%=      5-min Rain = 0
KOD1 171432Z 21014KT 30/22 A2998 RMK A01 T03030215  RH  059%=      5-min Rain = 0
KOD1 171433Z 20012KT 31/22 A2998 RMK A01 T03050217  RH  059%=      5-min Rain = 0
KOD1 171434Z 20012KT 31/22 A2998 RMK A01 T03070217  RH  059%=      5-min Rain = 0
KOD1 171435Z 19014KT 31/22 A2998 RMK A01 T03070216  RH  058%=      5-min Rain = 0
KOD1 171436Z 19015KT 31/22 A2998 RMK A01 T03080215  RH  058%=      5-min Rain = 0
KOD1 171437Z 19016KT 31/21 A2998 RMK A01 T03070214  RH  058%=      5-min Rain = 0
KOD1 171438Z 20015KT 31/21 A2998 RMK A01 T03070214  RH  058%=      5-min Rain = 0
KOD1 171439Z 20014KT 31/22 A2998 RMK A01 T03070215  RH  058%=      5-min Rain = 0
KOD1 171440Z 20017KT 31/21 A2998 RMK A01 T03070214  RH  058%=      5-min Rain = 0
KOD1 171441Z 20015KT 31/21 A2998 RMK A01 T03070214  RH  058%=      5-min Rain = 0
KOD1 171442Z 20017KT 31/21 A2998 RMK A01 T03070213  RH  057%=      5-min Rain = 0
KOD1 171443Z 20012KT 31/22 A2998 RMK A01 T03070215  RH  058%=      5-min Rain = 0
KOD1 171444Z 20013KT 31/22 A2998 RMK A01 T03080217  RH  058%=      5-min Rain = 0
KOD1 171445Z 21015KT 31/22 A2998 RMK A01 T03100215  RH  057%=      5-min Rain = 0
KOD1 171446Z 21015KT 31/22 A2998 RMK A01 T03100215  RH  057%=      5-min Rain = 0
KOD1 171447Z 21013G18KT 31/22 A2998 RMK A01 T03100215  RH  057%=      5-min Rain = 0
KOD1 171448Z 20013KT 31/22 A2998 RMK A01 T03110216  RH  057%=      5-min Rain = 0
KOD1 171449Z 20013KT 31/21 A2998 RMK A01 T03110214  RH  056%=      5-min Rain = 0
KOD1 171450Z 20013KT 31/22 A2998 RMK A01 T03110217  RH  057%=      5-min Rain = 0
KOD1 171451Z 20014KT 31/22 A2998 RMK A01 T03120215  RH  057%=      5-min Rain = 0
KOD1 171452Z 20013KT 31/22 A2998 RMK A01 T03120215  RH  056%=      5-min Rain = 0
KOD1 171453Z 20016KT 31/21 A2998 RMK A01 T03110213  RH  056%=      5-min Rain = 0
KOD1 171454Z 19015KT 31/21 A2998 RMK A01 T03120214  RH  056%=      5-min Rain = 0
KOD1 171455Z 20013KT 31/22 A2998 RMK A01 T03130215  RH  056%=      5-min Rain = 0
KOD1 171456Z 20013KT 31/22 A2998 RMK A01 T03140215  RH  056%=      5-min Rain = 0
KOD1 171457Z 21014KT 31/22 A2998 RMK A01 T03140216  RH  056%=      5-min Rain = 0
KOD1 171458Z 21014KT 31/22 A2998 RMK A01 T03140216  RH  056%=      5-min Rain = 0
KOD1 171459Z 21014KT 32/22 A2998 RMK A01 T03150216  RH  056%=      5-min Rain = 0
KOD1 171500Z 20013KT 32/22 A2998 RMK A01 T03160217  RH  056%=      5-min Rain = 0
KOD1 171501Z 20015KT 32/22 A2998 RMK A01 T03180215  RH  055%=      5-min Rain = 0
KOD1 171502Z 21014KT 32/21 A2997 RMK A01 T03160214  RH  055%=      5-min Rain = 0
KOD1 171503Z 19014KT 32/22 A2998 RMK A01 T03180216  RH  055%=      5-min Rain = 0
KOD1 171504Z 21013KT 32/22 A2998 RMK A01 T03180215  RH  054%=      5-min Rain = 0
KOD1 171505Z 20015KT 32/21 A2998 RMK A01 T03190214  RH  054%=      5-min Rain = 0
KOD1 171506Z 20014KT 32/21 A2998 RMK A01 T03180214  RH  054%=      5-min Rain = 0
KOD1 171507Z 20013KT 32/21 A2998 RMK A01 T03180214  RH  054%=      5-min Rain = 0
KOD1 171508Z 20013KT 32/22 A2998 RMK A01 T03190215  RH  054%=      5-min Rain = 0
KOD1 171509Z 22015KT 32/21 A2998 RMK A01 T03190214  RH  054%=      5-min Rain = 0
KOD1 171510Z 21014KT 32/22 A2998 RMK A01 T03180215  RH  054%=      5-min Rain = 0
KOD1 171511Z 21017KT 32/21 A2998 RMK A01 T03190214  RH  054%=      5-min Rain = 0
KOD1 171512Z 21015KT 32/21 A2998 RMK A01 T03180213  RH  054%=      5-min Rain = 0
KOD1 171513Z 22013KT 32/22 A2998 RMK A01 T03190215  RH  054%=      5-min Rain = 0
KOD1 171514Z 21015G20KT 32/22 A2998 RMK A01 T03200215  RH  054%=      5-min Rain = 0
KOD1 171515Z 21017KT 32/21 A2998 RMK A01 T03190213  RH  053%=      5-min Rain = 0
KOD1 171516Z 20014KT 32/21 A2998 RMK A01 T03170212  RH  054%=      5-min Rain = 0
KOD1 171517Z 20013G18KT 32/22 A2998 RMK A01 T03190215  RH  054%=      5-min Rain = 0
KOD1 171518Z 21015KT 32/21 A2998 RMK A01 T03200214  RH  053%=      5-min Rain = 0
KOD1 171519Z 21014KT 32/21 A2998 RMK A01 T03190213  RH  053%=      5-min Rain = 0
KOD1 171520Z 20016KT 32/21 A2998 RMK A01 T03200213  RH  053%=      5-min Rain = 0
KOD1 171521Z 21015KT 32/21 A2998 RMK A01 T03200213  RH  053%=      5-min Rain = 0
KOD1 171522Z 21013KT 32/22 A2998 RMK A01 T03200215  RH  054%=      5-min Rain = 0
KOD1 171523Z 21013KT 32/22 A2998 RMK A01 T03210216  RH  054%=      5-min Rain = 0
KOD1 171524Z 21014KT 32/21 A2998 RMK A01 T03210214  RH  053%=      5-min Rain = 0
KOD1 171525Z 21015KT 32/21 A2998 RMK A01 T03200212  RH  053%=      5-min Rain = 0
KOD1 171526Z 20016G21KT 32/21 A2998 RMK A01 T03190213  RH  054%=      5-min Rain = 0
KOD1 171527Z 20012KT 32/21 A2998 RMK A01 T03210214  RH  053%=      5-min Rain = 0
KOD1 171528Z 20013KT 32/22 A2998 RMK A01 T03210215  RH  053%=      5-min Rain = 0
KOD1 171529Z 20012KT 32/22 A2998 RMK A01 T03220215  RH  053%=      5-min Rain = 0
KOD1 171530Z 20013KT 32/21 A2998 RMK A01 T03220214  RH  053%=      5-min Rain = 0
KOD1 171531Z 20014KT 32/22 A2998 RMK A01 T03220215  RH  053%=      5-min Rain = 0
KOD1 171532Z 21013KT 32/21 A2998 RMK A01 T03220214  RH  053%=      5-min Rain = 0
KOD1 171533Z 21011KT 32/22 A2998 RMK A01 T03230215  RH  053%=      5-min Rain = 0
KOD1 171534Z 21016KT 32/21 A2998 RMK A01 T03220213  RH  053%=      5-min Rain = 0
KOD1 171535Z 20017G22KT 32/21 A2998 RMK A01 T03210213  RH  053%=      5-min Rain = 0
KOD1 171536Z 20014KT 32/21 A2998 RMK A01 T03200213  RH  053%=      5-min Rain = 0
KOD1 171537Z 21015KT 32/21 A2998 RMK A01 T03210214  RH  053%=      5-min Rain = 0
KOD1 171538Z 20010KT 32/22 A2998 RMK A01 T03220215  RH  053%=      5-min Rain = 0
KOD1 171539Z 20013KT 33/22 A2998 RMK A01 T03250216  RH  053%=      5-min Rain = 0
KOD1 171540Z 20014KT 32/21 A2998 RMK A01 T03240214  RH  052%=      5-min Rain = 0
KOD1 171541Z 20013KT 32/21 A2998 RMK A01 T03230213  RH  052%=      5-min Rain = 0
KOD1 171542Z 20011KT 32/22 A2998 RMK A01 T03230215  RH  053%=      5-min Rain = 0
KOD1 171543Z 21011KT 33/22 A2998 RMK A01 T03260219  RH  054%=      5-min Rain = 0
KOD1 171544Z 21013KT 33/22 A2998 RMK A01 T03280216  RH  052%=      5-min Rain = 0
KOD1 171545Z 21014KT 33/21 A2998 RMK A01 T03250214  RH  052%=      5-min Rain = 0
KOD1 171546Z 20015KT 32/21 A2998 RMK A01 T03240214  RH  052%=      5-min Rain = 0
KOD1 171547Z 21017KT 32/21 A2998 RMK A01 T03240214  RH  052%=      5-min Rain = 0
KOD1 171548Z 20015KT 32/21 A2998 RMK A01 T03240214  RH  052%=      5-min Rain = 0
KOD1 171549Z 20013G19KT 33/22 A2998 RMK A01 T03250216  RH  053%=      5-min Rain = 0
KOD1 171550Z 21016KT 33/21 A2998 RMK A01 T03260214  RH  052%=      5-min Rain = 0
KOD1 171551Z 21015KT 32/21 A2998 RMK A01 T03240214  RH  052%=      5-min Rain = 0
KOD1 171552Z 21014KT 32/22 A2998 RMK A01 T03240215  RH  053%=      5-min Rain = 0
KOD1 171553Z 20013KT 32/21 A2998 RMK A01 T03240214  RH  052%=      5-min Rain = 0
KOD1 171554Z 21014KT 33/22 A2998 RMK A01 T03250215  RH  052%=      5-min Rain = 0
KOD1 171555Z 20015KT 33/22 A2998 RMK A01 T03260215  RH  052%=      5-min Rain = 0
KOD1 171556Z 20012KT 33/22 A2998 RMK A01 T03260215  RH  052%=      5-min Rain = 0
KOD1 171557Z 21012KT 33/22 A2998 RMK A01 T03270216  RH  052%=      5-min Rain = 0
KOD1 171558Z 18011KT 33/22 A2998 RMK A01 T03270216  RH  052%=      5-min Rain = 0
KOD1 171559Z 19013KT 33/22 A2998 RMK A01 T03290217  RH  052%=      5-min Rain = 0
KOD1 171600Z 20013KT 33/22 A2998 RMK A01 T03290216  RH  051%=      5-min Rain = 0
KOD1 171601Z 18014KT 33/22 A2998 RMK A01 T03300217  RH  052%=      5-min Rain = 0
KOD1 171602Z 19014KT 33/21 A2998 RMK A01 T03300214  RH  051%=      5-min Rain = 0
KOD1 171603Z 19015KT 33/22 A2998 RMK A01 T03290216  RH  051%=      5-min Rain = 0
KOD1 171604Z 20015KT 33/22 A2998 RMK A01 T03300215  RH  051%=      5-min Rain = 0
KOD1 171605Z 20014KT 33/21 A2998 RMK A01 T03300214  RH  051%=      5-min Rain = 0
KOD1 171606Z 20013KT 33/21 A2998 RMK A01 T03280213  RH  051%=      5-min Rain = 0
KOD1 171607Z 21016KT 33/21 A2998 RMK A01 T03270214  RH  051%=      5-min Rain = 0
KOD1 171608Z 21014KT 33/21 A2998 RMK A01 T03260214  RH  052%=      5-min Rain = 0
KOD1 171609Z 21012KT 33/22 A2998 RMK A01 T03280218  RH  052%=      5-min Rain = 0
KOD1 171610Z 21010KT 33/22 A2998 RMK A01 T03300217  RH  052%=      5-min Rain = 0
KOD1 171611Z 20011KT 33/22 A2998 RMK A01 T03300217  RH  051%=      5-min Rain = 0
KOD1 171612Z 21012KT 33/22 A2998 RMK A01 T03300219  RH  052%=      5-min Rain = 0
KOD1 171613Z 21013KT 33/22 A2998 RMK A01 T03300215  RH  051%=      5-min Rain = 0
KOD1 171614Z 19011KT 33/22 A2998 RMK A01 T03300216  RH  051%=      5-min Rain = 0
KOD1 171615Z 19013KT 33/22 A2998 RMK A01 T03300215  RH  051%=      5-min Rain = 0
KOD1 171616Z 19013KT 33/22 A2998 RMK A01 T03300215  RH  051%=      5-min Rain = 0
KOD1 171617Z 19014KT 33/21 A2998 RMK A01 T03310214  RH  050%=      5-min Rain = 0
KOD1 171618Z 18013KT 33/21 A2998 RMK A01 T03290214  RH  051%=      5-min Rain = 0
KOD1 171619Z 18012KT 33/22 A2998 RMK A01 T03290215  RH  051%=      5-min Rain = 0
KOD1 171620Z 18010KT 33/22 A2998 RMK A01 T03290217  RH  052%=      5-min Rain = 0
KOD1 171621Z 19013KT 33/22 A2998 RMK A01 T03310217  RH  051%=      5-min Rain = 0
KOD1 171622Z 19012KT 33/22 A2998 RMK A01 T03310216  RH  051%=      5-min Rain = 0
KOD1 171623Z 18011KT 33/22 A2998 RMK A01 T03310217  RH  051%=      5-min Rain = 0
KOD1 171624Z 20013G18KT 33/22 A2998 RMK A01 T03330218  RH  051%=      5-min Rain = 0
KOD1 171625Z 21013KT 34/22 A2998 RMK A01 T03350218  RH  050%=      5-min Rain = 0
KOD1 171626Z 21010KT 33/22 A2998 RMK A01 T03340219  RH  051%=      5-min Rain = 0
KOD1 171627Z 21015KT 33/22 A2998 RMK A01 T03340217  RH  050%=      5-min Rain = 0
KOD1 171628Z 20014KT 33/21 A2998 RMK A01 T03320214  RH  050%=      5-min Rain = 0
KOD1 171629Z 20016KT 33/21 A2998 RMK A01 T03310213  RH  050%=      5-min Rain = 0
KOD1 171630Z 21013KT 33/21 A2998 RMK A01 T03300214  RH  051%=      5-min Rain = 0
KOD1 171631Z 21014KT 33/21 A2998 RMK A01 T03290213  RH  051%=      5-min Rain = 0
KOD1 171632Z 21013KT 33/21 A2998 RMK A01 T03280213  RH  051%=      5-min Rain = 0
KOD1 171633Z 20011KT 33/22 A2998 RMK A01 T03300215  RH  051%=      5-min Rain = 0
KOD1 171634Z 19015KT 33/22 A2998 RMK A01 T03310215  RH  051%=      5-min Rain = 0
KOD1 171635Z 19012KT 33/22 A2998 RMK A01 T03310217  RH  051%=      5-min Rain = 0
KOD1 171636Z 19010KT 33/22 A2998 RMK A01 T03330218  RH  051%=      5-min Rain = 0
KOD1 171637Z 20014KT 34/22 A2998 RMK A01 T03360218  RH  050%=      5-min Rain = 0
KOD1 171638Z 21015KT 34/22 A2998 RMK A01 T03360215  RH  049%=      5-min Rain = 0
KOD1 171639Z 21014KT 33/21 A2997 RMK A01 T03340214  RH  050%=      5-min Rain = 0
KOD1 171640Z 19015KT 33/22 A2997 RMK A01 T03340216  RH  050%=      5-min Rain = 0
KOD1 171641Z 20016KT 33/21 A2998 RMK A01 T03340211  RH  049%=      5-min Rain = 0
KOD1 171642Z 20014KT 33/21 A2998 RMK A01 T03330213  RH  049%=      5-min Rain = 0
KOD1 171643Z 20013G18KT 33/21 A2998 RMK A01 T03330213  RH  049%=      5-min Rain = 0
KOD1 171644Z 21015KT 33/22 A2998 RMK A01 T03340215  RH  050%=      5-min Rain = 0
KOD1 171645Z 21014KT 33/22 A2998 RMK A01 T03340216  RH  050%=      5-min Rain = 0
KOD1 171646Z 20013KT 33/22 A2998 RMK A01 T03340215  RH  050%=      5-min Rain = 0
KOD1 171647Z 21013KT 33/21 A2998 RMK A01 T03330214  RH  050%=      5-min Rain = 0
KOD1 171648Z 21010KT 33/22 A2998 RMK A01 T03330218  RH  051%=      5-min Rain = 0
KOD1 171649Z 21011KT 34/22 A2998 RMK A01 T03370219  RH  050%=      5-min Rain = 0
KOD1 171650Z 20011G16KT 34/22 A2998 RMK A01 T03400218  RH  049%=      5-min Rain = 0
KOD1 171651Z 19012KT 34/22 A2998 RMK A01 T03390215  RH  048%=      5-min Rain = 0
KOD1 171652Z 21009KT 34/22 A2998 RMK A01 T03390218  RH  049%=      5-min Rain = 0
KOD1 171653Z 20012G18KT 34/22 A2998 RMK A01 T03410220  RH  049%=      5-min Rain = 0
KOD1 171654Z 18014KT 34/22 A2997 RMK A01 T03410215  RH  048%=      5-min Rain = 0
KOD1 171655Z 20014KT 34/21 A2998 RMK A01 T03390213  RH  048%=      5-min Rain = 0
KOD1 171656Z 21013KT 34/21 A2998 RMK A01 T03370214  RH  049%=      5-min Rain = 0
KOD1 171657Z 21012KT 34/22 A2998 RMK A01 T03360215  RH  049%=      5-min Rain = 0
KOD1 171658Z 21012KT 34/22 A2998 RMK A01 T03360215  RH  049%=      5-min Rain = 0
KOD1 171659Z 20011KT 34/22 A2998 RMK A01 T03360217  RH  050%=      5-min Rain = 0
KOD1 171700Z 20011KT 34/22 A2998 RMK A01 T03390216  RH  049%=      5-min Rain = 0
KOD1 171701Z 19012G17KT 34/22 A2997 RMK A01 T03390216  RH  049%=      5-min Rain = 0
KOD1 171702Z 19017KT 34/21 A2997 RMK A01 T03400213  RH  048%=      5-min Rain = 0
KOD1 171703Z 19014KT 34/22 A2998 RMK A01 T03390216  RH  049%=      5-min Rain = 0
KOD1 171704Z 20013KT 34/22 A2998 RMK A01 T03410218  RH  049%=      5-min Rain = 0
KOD1 171705Z 20012KT 34/22 A2998 RMK A01 T03420217  RH  048%=      5-min Rain = 0
KOD1 171706Z 19014KT 34/22 A2998 RMK A01 T03410215  RH  048%=      5-min Rain = 0
KOD1 171707Z 18013KT 34/21 A2998 RMK A01 T03400213  RH  047%=      5-min Rain = 0
KOD1 171708Z 17012KT 34/21 A2997 RMK A01 T03400213  RH  048%=      5-min Rain = 0
KOD1 171709Z 19010G17KT 34/22 A2998 RMK A01 T03420217  RH  048%=      5-min Rain = 0
KOD1 171710Z 19014KT 34/22 A2997 RMK A01 T03430215  RH  047%=      5-min Rain = 0
KOD1 171711Z 20012KT 34/21 A2998 RMK A01 T03420213  RH  047%=      5-min Rain = 0
KOD1 171712Z 19009KT 34/21 A2998 RMK A01 T03410213  RH  047%=      5-min Rain = 0
KOD1 171713Z 18010KT 34/22 A2997 RMK A01 T03430217  RH  048%=      5-min Rain = 0
KOD1 171714Z 20011KT 35/22 A2997 RMK A01 T03450215  RH  047%=      5-min Rain = 0
KOD1 171715Z 19016KT 35/21 A2997 RMK A01 T03450214  RH  047%=      5-min Rain = 0
KOD1 171716Z 18013KT 35/22 A2997 RMK A01 T03450215  RH  047%=      5-min Rain = 0
KOD1 171717Z 20013KT 35/21 A2997 RMK A01 T03450214  RH  047%=      5-min Rain = 0
KOD1 171718Z 21011KT 34/21 A2997 RMK A01 T03440214  RH  047%=      5-min Rain = 0
KOD1 171719Z 21013KT 35/22 A2997 RMK A01 T03450217  RH  048%=      5-min Rain = 0
KOD1 171720Z 22014KT 34/21 A2997 RMK A01 T03440214  RH  047%=      5-min Rain = 0
KOD1 171721Z 21013KT 34/21 A2997 RMK A01 T03430213  RH  047%=      5-min Rain = 0
KOD1 171722Z 21016KT 34/21 A2997 RMK A01 T03430212  RH  047%=      5-min Rain = 0
KOD1 171723Z 20014KT 34/21 A2997 RMK A01 T03430211  RH  046%=      5-min Rain = 0
KOD1 171724Z 21011KT 34/21 A2997 RMK A01 T03430211  RH  046%=      5-min Rain = 0
KOD1 171725Z 21011KT 34/21 A2997 RMK A01 T03440214  RH  047%=      5-min Rain = 0
KOD1 171726Z 19011KT 35/22 A2997 RMK A01 T03470216  RH  046%=      5-min Rain = 0
KOD1 171727Z 19013KT 35/21 A2997 RMK A01 T03490213  RH  045%=      5-min Rain = 0
KOD1 171728Z 19018KT 35/21 A2997 RMK A01 T03480209  RH  044%=      5-min Rain = 0
KOD1 171729Z 19016KT 35/21 A2997 RMK A01 T03470206  RH  044%=      5-min Rain = 0
KOD1 171730Z 20013KT 35/21 A2997 RMK A01 T03450207  RH  045%=      5-min Rain = 0
KOD1 171731Z 19014G19KT 35/21 A2997 RMK A01 T03460211  RH  046%=      5-min Rain = 0
KOD1 171732Z 18014G19KT 35/21 A2997 RMK A01 T03500212  RH  045%=      5-min Rain = 0
KOD1 171733Z 18018KT 35/21 A2997 RMK A01 T03500210  RH  044%=      5-min Rain = 0
KOD1 171734Z 18015KT 35/21 A2997 RMK A01 T03480210  RH  045%=      5-min Rain = 0
KOD1 171735Z 18015KT 35/21 A2997 RMK A01 T03480210  RH  044%=      5-min Rain = 0
KOD1 171736Z 18011KT 35/21 A2997 RMK A01 T03480209  RH  044%=      5-min Rain = 0
KOD1 171737Z 17012G17KT 35/21 A2997 RMK A01 T03480210  RH  045%=      5-min Rain = 0
KOD1 171738Z 19010KT 35/21 A2997 RMK A01 T03490212  RH  045%=      5-min Rain = 0
KOD1 171739Z 19012KT 35/22 A2997 RMK A01 T03520215  RH  045%=      5-min Rain = 0
KOD1 171740Z 20014KT 35/21 A2997 RMK A01 T03540211  RH  044%=      5-min Rain = 0
KOD1 171741Z 19014KT 35/21 A2997 RMK A01 T03510209  RH  044%=      5-min Rain = 0
KOD1 171742Z 18016KT 35/21 A2997 RMK A01 T03490208  RH  044%=      5-min Rain = 0
KOD1 171743Z 18013KT 35/21 A2997 RMK A01 T03490208  RH  044%=      5-min Rain = 0
KOD1 171744Z 19014KT 35/21 A2997 RMK A01 T03500209  RH  044%=      5-min Rain = 0
KOD1 171745Z 19014KT 35/21 A2997 RMK A01 T03500207  RH  044%=      5-min Rain = 0
KOD1 171746Z 20013KT 35/21 A2997 RMK A01 T03490209  RH  044%=      5-min Rain = 0
KOD1 171747Z 19016G23KT 35/21 A2997 RMK A01 T03500211  RH  044%=      5-min Rain = 0
KOD1 171748Z 19017KT 35/21 A2997 RMK A01 T03510208  RH  043%=      5-min Rain = 0
KOD1 171749Z 19016KT 35/21 A2997 RMK A01 T03510208  RH  043%=      5-min Rain = 0
KOD1 171750Z 19012KT 35/21 A2997 RMK A01 T03510207  RH  043%=      5-min Rain = 0
KOD1 171751Z 20010KT 35/21 A2997 RMK A01 T03520208  RH  043%=      5-min Rain = 0
KOD1 171752Z 21016KT 35/21 A2997 RMK A01 T03540208  RH  043%=      5-min Rain = 0
KOD1 171753Z 21013KT 35/21 A2997 RMK A01 T03530209  RH  043%=      5-min Rain = 0
KOD1 171754Z 21014KT 35/21 A2997 RMK A01 T03540211  RH  043%=      5-min Rain = 0
KOD1 171755Z 19012KT 36/21 A2997 RMK A01 T03550212  RH  043%=      5-min Rain = 0
KOD1 171756Z 20010KT 36/21 A2997 RMK A01 T03560210  RH  043%=      5-min Rain = 0
KOD1 171757Z 20012KT 36/21 A2997 RMK A01 T03550208  RH  042%=      5-min Rain = 0
KOD1 171758Z 20013KT 35/20 A2997 RMK A01 T03540204  RH  042%=      5-min Rain = 0
KOD1 171759Z 21015KT 35/21 A2997 RMK A01 T03540206  RH  042%=      5-min Rain = 0
KOD1 171800Z 19014KT 35/21 A2997 RMK A01 T03530210  RH  043%=      5-min Rain = 0
KOD1 171801Z 21010KT 36/21 A2997 RMK A01 T03550213  RH  044%=      5-min Rain = 0
KOD1 171802Z 20011G16KT 36/21 A2997 RMK A01 T03570214  RH  044%=      5-min Rain = 0
KOD1 171803Z 18015KT 36/21 A2997 RMK A01 T03570210  RH  043%=      5-min Rain = 0
KOD1 171804Z 18012G17KT 36/21 A2997 RMK A01 T03550210  RH  043%=      5-min Rain = 0
KOD1 171805Z 18012KT 36/21 A2996 RMK A01 T03560212  RH  043%=      5-min Rain = 0
KOD1 171806Z 17011G16KT 36/21 A2996 RMK A01 T03560209  RH  043%=      5-min Rain = 0
KOD1 171807Z 17014KT 35/21 A2996 RMK A01 T03540208  RH  043%=      5-min Rain = 0
KOD1 171808Z 17012KT 35/21 A2996 RMK A01 T03530209  RH  043%=      5-min Rain = 0
KOD1 171809Z 17010KT 35/21 A2996 RMK A01 T03540211  RH  043%=      5-min Rain = 0
KOD1 171810Z 20013G18KT 36/21 A2996 RMK A01 T03560213  RH  043%=      5-min Rain = 0
KOD1 171811Z 21011KT 36/21 A2996 RMK A01 T03580211  RH  043%=      5-min Rain = 0
KOD1 171812Z 20012KT 36/21 A2996 RMK A01 T03580212  RH  043%=      5-min Rain = 0
KOD1 171813Z 20013KT 36/21 A2996 RMK A01 T03580211  RH  043%=      5-min Rain = 0
KOD1 171814Z 21011KT 36/21 A2996 RMK A01 T03550210  RH  043%=      5-min Rain = 0
KOD1 171815Z 21012KT 35/21 A2996 RMK A01 T03540212  RH  044%=      5-min Rain = 0
KOD1 171816Z 19010KT 36/21 A2996 RMK A01 T03550214  RH  044%=      5-min Rain = 0
KOD1 171817Z 18010KT 36/22 A2996 RMK A01 T03590217  RH  044%=      5-min Rain = 0
KOD1 171818Z 19011KT 36/21 A2996 RMK A01 T03630214  RH  042%=      5-min Rain = 0
KOD1 171819Z 20008KT 36/21 A2996 RMK A01 T03610206  RH  041%=      5-min Rain = 0
KOD1 171820Z 17009KT 36/21 A2996 RMK A01 T03610213  RH  042%=      5-min Rain = 0
KOD1 171821Z 18014KT 36/21 A2996 RMK A01 T03640211  RH  041%=      5-min Rain = 0
KOD1 171822Z 18018KT 36/21 A2996 RMK A01 T03630207  RH  040%=      5-min Rain = 0
KOD1 171823Z 18013KT 36/21 A2996 RMK A01 T03620205  RH  040%=      5-min Rain = 0
KOD1 171824Z 18013KT 36/21 A2996 RMK A01 T03590205  RH  041%=      5-min Rain = 0
KOD1 171825Z 18014KT 36/20 A2996 RMK A01 T03580204  RH  041%=      5-min Rain = 0
KOD1 171826Z 18013KT 36/20 A2996 RMK A01 T03570201  RH  040%=      5-min Rain = 0
KOD1 171827Z 17014KT 36/20 A2996 RMK A01 T03570203  RH  041%=      5-min Rain = 0
KOD1 171828Z 16010KT 36/21 A2996 RMK A01 T03580205  RH  041%=      5-min Rain = 0
KOD1 171829Z 17005KT 36/21 A2996 RMK A01 T03590207  RH  041%=      5-min Rain = 0
KOD1 171830Z 19009KT 36/21 A2996 RMK A01 T03620214  RH  043%=      5-min Rain = 0
KOD1 171831Z 18009G18KT 36/21 A2996 RMK A01 T03640213  RH  042%=      5-min Rain = 0
KOD1 171832Z 21013KT 37/21 A2996 RMK A01 T03650208  RH  040%=      5-min Rain = 0
KOD1 171833Z 21010KT 37/21 A2996 RMK A01 T03660208  RH  040%=      5-min Rain = 0
KOD1 171834Z 20010KT 37/21 A2996 RMK A01 T03670209  RH  040%=      5-min Rain = 0
KOD1 171835Z 19010KT 37/21 A2996 RMK A01 T03680206  RH  039%=      5-min Rain = 0
KOD1 171836Z 17011KT 37/20 A2996 RMK A01 T03650204  RH  039%=      5-min Rain = 0
KOD1 171837Z 17015KT 36/20 A2996 RMK A01 T03630204  RH  040%=      5-min Rain = 0
KOD1 171838Z 17010KT 36/21 A2996 RMK A01 T03620205  RH  040%=      5-min Rain = 0
KOD1 171839Z 17015G22KT 36/21 A2996 RMK A01 T03630210  RH  041%=      5-min Rain = 0
KOD1 171840Z 17017KT 36/21 A2996 RMK A01 T03620205  RH  040%=      5-min Rain = 0
KOD1 171841Z 17014KT 36/21 A2996 RMK A01 T03600206  RH  041%=      5-min Rain = 0
KOD1 171842Z 18011KT 36/21 A2996 RMK A01 T03620209  RH  041%=      5-min Rain = 0
KOD1 171843Z 17011KT 36/21 A2996 RMK A01 T03600207  RH  041%=      5-min Rain = 0
KOD1 171844Z 18009KT 36/21 A2996 RMK A01 T03590206  RH  041%=      5-min Rain = 0
KOD1 171845Z 17009KT 36/21 A2995 RMK A01 T03570207  RH  042%=      5-min Rain = 0
KOD1 171846Z 17011G16KT 36/21 A2995 RMK A01 T03570210  RH  042%=      5-min Rain = 0
KOD1 171847Z 18013KT 36/21 A2995 RMK A01 T03580207  RH  041%=      5-min Rain = 0
KOD1 171848Z 18011KT 36/21 A2995 RMK A01 T03610209  RH  041%=      5-min Rain = 0
KOD1 171849Z 17017KT 36/21 A2995 RMK A01 T03640207  RH  040%=      5-min Rain = 0
KOD1 171850Z 16016KT 36/20 A2995 RMK A01 T03620202  RH  039%=      5-min Rain = 0
KOD1 171851Z 18015KT 36/20 A2995 RMK A01 T03620202  RH  039%=      5-min Rain = 0
KOD1 171852Z 18010KT 36/20 A2995 RMK A01 T03590199  RH  039%=      5-min Rain = 0
KOD1 171853Z 20008KT 36/20 A2995 RMK A01 T03580203  RH  041%=      5-min Rain = 0
KOD1 171854Z 18010KT 36/21 A2995 RMK A01 T03610206  RH  040%=      5-min Rain = 0
KOD1 171855Z 18015KT 36/20 A2995 RMK A01 T03640202  RH  039%=      5-min Rain = 0
KOD1 171856Z 17015KT 36/20 A2995 RMK A01 T03640200  RH  038%=      5-min Rain = 0
KOD1 171857Z 16012KT 36/20 A2995 RMK A01 T03620197  RH  038%=      5-min Rain = 0
KOD1 171858Z 18013KT 36/20 A2995 RMK A01 T03610199  RH  039%=      5-min Rain = 0
KOD1 171859Z 20012KT 36/20 A2995 RMK A01 T03600200  RH  039%=      5-min Rain = 0
KOD1 171900Z 20011KT 36/20 A2995 RMK A01 T03600199  RH  039%=      5-min Rain = 0
KOD1 171901Z 18011KT 36/21 A2995 RMK A01 T03620206  RH  040%=      5-min Rain = 0
KOD1 171902Z 17015KT 37/20 A2995 RMK A01 T03670196  RH  037%=      5-min Rain = 0
KOD1 171903Z 17014KT 37/19 A2995 RMK A01 T03660191  RH  036%=      5-min Rain = 0
KOD1 171904Z 17013KT 37/19 A2995 RMK A01 T03650193  RH  037%=      5-min Rain = 0
KOD1 171905Z 18016KT 37/19 A2995 RMK A01 T03660193  RH  036%=      5-min Rain = 0
KOD1 171906Z 18016G23KT 36/19 A2995 RMK A01 T03630194  RH  037%=      5-min Rain = 0
KOD1 171907Z 17015KT 36/20 A2995 RMK A01 T03640200  RH  038%=      5-min Rain = 0
KOD1 171908Z 18016KT 37/20 A2995 RMK A01 T03650198  RH  038%=      5-min Rain = 0
KOD1 171909Z 18014G19KT 36/20 A2995 RMK A01 T03630197  RH  038%=      5-min Rain = 0
KOD1 171910Z 19012KT 36/20 A2995 RMK A01 T03640198  RH  038%=      5-min Rain = 0
KOD1 171911Z 19011KT 36/19 A2995 RMK A01 T03630192  RH  037%=      5-min Rain = 0
KOD1 171912Z 18012G18KT 36/19 A2994 RMK A01 T03630192  RH  037%=      5-min Rain = 0
KOD1 171913Z 17015G21KT 36/20 A2995 RMK A01 T03640195  RH  037%=      5-min Rain = 0
KOD1 171914Z 17016KT 36/20 A2995 RMK A01 T03640197  RH  038%=      5-min Rain = 0
KOD1 171915Z 16015KT 36/19 A2995 RMK A01 T03630193  RH  037%=      5-min Rain = 0
KOD1 171916Z 16015G20KT 36/19 A2995 RMK A01 T03620194  RH  038%=      5-min Rain = 0
KOD1 171917Z 17010KT 36/20 A2995 RMK A01 T03620198  RH  038%=      5-min Rain = 0
KOD1 171918Z 17012KT 37/20 A2995 RMK A01 T03650201  RH  038%=      5-min Rain = 0
KOD1 171919Z 17011KT 36/20 A2995 RMK A01 T03640197  RH  038%=      5-min Rain = 0
KOD1 171920Z 17009KT 36/20 A2995 RMK A01 T03620199  RH  039%=      5-min Rain = 0
KOD1 171921Z 16015G21KT 36/20 A2995 RMK A01 T03630196  RH  038%=      5-min Rain = 0
KOD1 171922Z 17014KT 36/20 A2994 RMK A01 T03640195  RH  037%=      5-min Rain = 0
KOD1 171923Z 17014KT 36/20 A2994 RMK A01 T03640198  RH  038%=      5-min Rain = 0
KOD1 171924Z 17018G23KT 37/20 A2994 RMK A01 T03650198  RH  038%=      5-min Rain = 0
KOD1 171925Z 17015KT 37/20 A2994 RMK A01 T03660199  RH  038%=      5-min Rain = 0
KOD1 171926Z 17014KT 37/20 A2994 RMK A01 T03670197  RH  037%=      5-min Rain = 0
KOD1 171927Z 16014KT 37/20 A2994 RMK A01 T03660196  RH  037%=      5-min Rain = 0
KOD1 171928Z 16015KT 37/20 A2994 RMK A01 T03670196  RH  037%=      5-min Rain = 0
KOD1 171929Z 18015G20KT 37/20 A2994 RMK A01 T03700198  RH  037%=      5-min Rain = 0
KOD1 171930Z 18016KT 37/19 A2994 RMK A01 T03690192  RH  036%=      5-min Rain = 0
KOD1 171931Z 17014KT 37/19 A2994 RMK A01 T03670194  RH  036%=      5-min Rain = 0
KOD1 171932Z 18014KT 37/20 A2994 RMK A01 T03660198  RH  038%=      5-min Rain = 0
KOD1 171933Z 18011KT 37/20 A2994 RMK A01 T03670200  RH  038%=      5-min Rain = 0
KOD1 171934Z 19012KT 37/20 A2994 RMK A01 T03680201  RH  038%=      5-min Rain = 0
KOD1 171935Z 19013KT 37/20 A2994 RMK A01 T03660197  RH  037%=      5-min Rain = 0
KOD1 171936Z 18011KT 36/20 A2994 RMK A01 T03640198  RH  038%=      5-min Rain = 0
KOD1 171937Z 19011KT 37/20 A2994 RMK A01 T03650200  RH  038%=      5-min Rain = 0
KOD1 171938Z 19012KT 37/20 A2994 RMK A01 T03680196  RH  037%=      5-min Rain = 0
KOD1 171939Z 19015KT 37/19 A2994 RMK A01 T03670192  RH  036%=      5-min Rain = 0
KOD1 171940Z 19012KT 37/19 A2994 RMK A01 T03670193  RH  036%=      5-min Rain = 0
KOD1 171941Z 20011KT 37/20 A2994 RMK A01 T03680197  RH  037%=      5-min Rain = 0
KOD1 171942Z 19011KT 37/19 A2994 RMK A01 T03700192  RH  036%=      5-min Rain = 0
KOD1 171943Z 17013KT 37/20 A2994 RMK A01 T03690197  RH  037%=      5-min Rain = 0
KOD1 171944Z 17014KT 37/20 A2994 RMK A01 T03680198  RH  037%=      5-min Rain = 0
KOD1 171945Z 16013KT 37/20 A2994 RMK A01 T03670196  RH  037%=      5-min Rain = 0
KOD1 171946Z 17015KT 37/20 A2994 RMK A01 T03690199  RH  037%=      5-min Rain = 0
KOD1 171947Z 17013KT 37/20 A2994 RMK A01 T03710196  RH  036%=      5-min Rain = 0
KOD1 171948Z 17015KT 37/19 A2994 RMK A01 T03690194  RH  036%=      5-min Rain = 0
KOD1 171949Z 18016KT 37/19 A2994 RMK A01 T03690194  RH  036%=      5-min Rain = 0
KOD1 171950Z 19014KT 37/19 A2994 RMK A01 T03690191  RH  035%=      5-min Rain = 0
KOD1 171951Z 19012KT 37/19 A2994 RMK A01 T03680190  RH  035%=      5-min Rain = 0
KOD1 171952Z 18010KT 37/19 A2994 RMK A01 T03700190  RH  035%=      5-min Rain = 0
KOD1 171953Z 20012KT 37/20 A2994 RMK A01 T03720195  RH  036%=      5-min Rain = 0
KOD1 171954Z 18014KT 38/20 A2993 RMK A01 T03760196  RH  035%=      5-min Rain = 0
KOD1 171955Z 19012KT 37/20 A2993 RMK A01 T03740197  RH  036%=      5-min Rain = 0
KOD1 171956Z 20012G17KT 37/20 A2993 RMK A01 T03740197  RH  036%=      5-min Rain = 0
KOD1 171957Z 20012KT 37/19 A2993 RMK A01 T03720190  RH  035%=      5-min Rain = 0
KOD1 171958Z 18010G15KT 37/19 A2993 RMK A01 T03690193  RH  036%=      5-min Rain = 0
KOD1 171959Z 16015KT 37/20 A2993 RMK A01 T03710199  RH  037%=      5-min Rain = 0
KOD1 172000Z 18014KT 37/20 A2993 RMK A01 T03720201  RH  037%=      5-min Rain = 0
KOD1 172001Z 20011KT 37/20 A2993 RMK A01 T03690195  RH  036%=      5-min Rain = 0
KOD1 172002Z 18010KT 37/20 A2993 RMK A01 T03700202  RH  038%=      5-min Rain = 0
KOD1 172003Z 19011G16KT 37/20 A2993 RMK A01 T03720200  RH  037%=      5-min Rain = 0
KOD1 172004Z 18011KT 37/20 A2993 RMK A01 T03710197  RH  036%=      5-min Rain = 0
KOD1 172005Z 18012KT 37/20 A2993 RMK A01 T03730199  RH  036%=      5-min Rain = 0
KOD1 172006Z 19014KT 37/19 A2993 RMK A01 T03730190  RH  034%=      5-min Rain = 0
KOD1 172007Z 19013KT 37/19 A2993 RMK A01 T03700189  RH  035%=      5-min Rain = 0
KOD1 172008Z 20012KT 37/19 A2993 RMK A01 T03690189  RH  035%=      5-min Rain = 0
KOD1 172009Z 19011KT 37/20 A2993 RMK A01 T03720196  RH  036%=      5-min Rain = 0
KOD1 172010Z 18014KT 37/19 A2993 RMK A01 T03740192  RH  035%=      5-min Rain = 0
KOD1 172011Z 17016G21KT 37/20 A2993 RMK A01 T03710195  RH  036%=      5-min Rain = 0
KOD1 172012Z 17015G21KT 37/20 A2993 RMK A01 T03690196  RH  036%=      5-min Rain = 0
KOD1 172013Z 17017KT 37/20 A2992 RMK A01 T03700197  RH  037%=      5-min Rain = 0
KOD1 172014Z 19015KT 37/20 A2993 RMK A01 T03680196  RH  037%=      5-min Rain = 0
KOD1 172015Z 17010KT 36/20 A2993 RMK A01 T03640195  RH  037%=      5-min Rain = 0
KOD1 172016Z 18009KT 36/20 A2993 RMK A01 T03640195  RH  037%=      5-min Rain = 0
KOD1 172017Z 19012KT 37/20 A2993 RMK A01 T03650195  RH  037%=      5-min Rain = 0
KOD1 172018Z 18013G18KT 37/20 A2992 RMK A01 T03660195  RH  037%=      5-min Rain = 0
KOD1 172019Z 17017KT 37/20 A2993 RMK A01 T03690195  RH  036%=      5-min Rain = 0
KOD1 172020Z 17017KT 37/19 A2993 RMK A01 T03690190  RH  035%=      5-min Rain = 0
KOD1 172021Z 16014KT 37/19 A2993 RMK A01 T03680190  RH  035%=      5-min Rain = 0
KOD1 172022Z 15013KT 37/19 A2992 RMK A01 T03690190  RH  035%=      5-min Rain = 0
KOD1 172023Z 17013KT 37/19 A2992 RMK A01 T03710193  RH  035%=      5-min Rain = 0
KOD1 172024Z 18018G24KT 37/19 A2992 RMK A01 T03710193  RH  035%=      5-min Rain = 0
KOD1 172025Z 18019KT 37/19 A2992 RMK A01 T03710191  RH  035%=      5-min Rain = 0
KOD1 172026Z 18016KT 37/19 A2992 RMK A01 T03690190  RH  035%=      5-min Rain = 0
KOD1 172027Z 17013KT 37/19 A2992 RMK A01 T03690191  RH  035%=      5-min Rain = 0
KOD1 172028Z 18013KT 37/19 A2992 RMK A01 T03690192  RH  036%=      5-min Rain = 0
KOD1 172029Z 18013KT 37/19 A2992 RMK A01 T03700188  RH  035%=      5-min Rain = 0
KOD1 172030Z 17020KT 37/19 A2992 RMK A01 T03690187  RH  035%=      5-min Rain = 0
KOD1 172031Z 18018KT 37/19 A2992 RMK A01 T03700189  RH  035%=      5-min Rain = 0
KOD1 172032Z 19015KT 37/19 A2992 RMK A01 T03710191  RH  035%=      5-min Rain = 0
KOD1 172033Z 18015KT 37/19 A2992 RMK A01 T03720190  RH  035%=      5-min Rain = 0
KOD1 172034Z 18014KT 37/19 A2992 RMK A01 T03720188  RH  034%=      5-min Rain = 0
KOD1 172035Z 17015KT 37/19 A2992 RMK A01 T03710188  RH  034%=      5-min Rain = 0
KOD1 172036Z 18012KT 37/19 A2992 RMK A01 T03720187  RH  034%=      5-min Rain = 0
KOD1 172037Z 18013KT 37/19 A2992 RMK A01 T03720191  RH  035%=      5-min Rain = 0
KOD1 172038Z 18013KT 37/19 A2992 RMK A01 T03740191  RH  034%=      5-min Rain = 0
KOD1 172039Z 18011G17KT 37/19 A2992 RMK A01 T03720188  RH  034%=      5-min Rain = 0
KOD1 172040Z 19008KT 37/19 A2992 RMK A01 T03710192  RH  035%=      5-min Rain = 0
KOD1 172041Z 19010KT 37/20 A2992 RMK A01 T03740195  RH  035%=      5-min Rain = 0
KOD1 172042Z 21012KT 38/19 A2992 RMK A01 T03760194  RH  035%=      5-min Rain = 0
KOD1 172043Z 18011KT 38/20 A2992 RMK A01 T03760195  RH  035%=      5-min Rain = 0
KOD1 172044Z 16015KT 38/20 A2992 RMK A01 T03770195  RH  035%=      5-min Rain = 0
KOD1 172045Z 16012KT 38/19 A2992 RMK A01 T03750193  RH  035%=      5-min Rain = 0
KOD1 172046Z 17015KT 37/20 A2992 RMK A01 T03740196  RH  035%=      5-min Rain = 0
KOD1 172047Z 18014KT 37/19 A2991 RMK A01 T03710190  RH  035%=      5-min Rain = 0
KOD1 172048Z 17015KT 37/19 A2991 RMK A01 T03730193  RH  035%=      5-min Rain = 0
KOD1 172049Z 16017G22KT 37/19 A2991 RMK A01 T03720188  RH  034%=      5-min Rain = 0
KOD1 172050Z 16014KT 37/19 A2991 RMK A01 T03710189  RH  034%=      5-min Rain = 0
KOD1 172051Z 17015KT 37/19 A2991 RMK A01 T03710189  RH  035%=      5-min Rain = 0
KOD1 172052Z 17013KT 37/19 A2991 RMK A01 T03710189  RH  034%=      5-min Rain = 0
KOD1 172053Z 17014KT 37/19 A2991 RMK A01 T03730193  RH  035%=      5-min Rain = 0
KOD1 172054Z 17014KT 37/19 A2991 RMK A01 T03740193  RH  035%=      5-min Rain = 0
KOD1 172055Z 17017KT 38/19 A2991 RMK A01 T03750194  RH  035%=      5-min Rain = 0
KOD1 172056Z 17016KT 37/19 A2991 RMK A01 T03740192  RH  035%=      5-min Rain = 0
KOD1 172057Z 18014KT 37/19 A2991 RMK A01 T03730194  RH  035%=      5-min Rain = 0
KOD1 172058Z 19016KT 37/19 A2991 RMK A01 T03730189  RH  034%=      5-min Rain = 0
KOD1 172059Z 19014KT 37/19 A2991 RMK A01 T03710190  RH  035%=      5-min Rain = 0
KOD1 172100Z 21016KT 37/19 A2991 RMK A01 T03710191  RH  035%=      5-min Rain = 0
KOD1 172101Z 19012KT 37/19 A2991 RMK A01 T03700189  RH  035%=      5-min Rain = 0
KOD1 172102Z 18012KT 37/19 A2991 RMK A01 T03690190  RH  035%=      5-min Rain = 0
KOD1 172103Z 17013KT 37/19 A2991 RMK A01 T03700192  RH  035%=      5-min Rain = 0
KOD1 172104Z 15015G21KT 37/19 A2991 RMK A01 T03710190  RH  035%=      5-min Rain = 0
KOD1 172105Z 18015KT 37/19 A2991 RMK A01 T03740191  RH  034%=      5-min Rain = 0
KOD1 172106Z 18014KT 37/19 A2991 RMK A01 T03730190  RH  034%=      5-min Rain = 0
KOD1 172107Z 18015KT 37/19 A2991 RMK A01 T03730193  RH  035%=      5-min Rain = 0
KOD1 172108Z 18017KT 38/19 A2991 RMK A01 T03750192  RH  035%=      5-min Rain = 0
KOD1 172109Z 17012KT 37/19 A2991 RMK A01 T03740188  RH  034%=      5-min Rain = 0
KOD1 172110Z 17010KT 37/19 A2991 RMK A01 T03740193  RH  035%=      5-min Rain = 0
KOD1 172111Z 17012KT 38/19 A2991 RMK A01 T03760194  RH  035%=      5-min Rain = 0
KOD1 172112Z 17015G20KT 38/19 A2991 RMK A01 T03760190  RH  034%=      5-min Rain = 0
KOD1 172113Z 19015G20KT 37/19 A2991 RMK A01 T03740190  RH  034%=      5-min Rain = 0
KOD1 172114Z 19014KT 37/19 A2991 RMK A01 T03730189  RH  034%=      5-min Rain = 0
KOD1 172115Z 19013KT 37/19 A2991 RMK A01 T03740188  RH  034%=      5-min Rain = 0
KOD1 172116Z 19013KT 37/19 A2991 RMK A01 T03720186  RH  034%=      5-min Rain = 0
KOD1 172117Z 20010KT 37/19 A2991 RMK A01 T03700188  RH  035%=      5-min Rain = 0
KOD1 172118Z 17013G18KT 37/19 A2991 RMK A01 T03710193  RH  035%=      5-min Rain = 0
KOD1 172119Z 17014KT 37/19 A2991 RMK A01 T03730190  RH  035%=      5-min Rain = 0
KOD1 172120Z 16015KT 37/19 A2991 RMK A01 T03720186  RH  034%=      5-min Rain = 0
KOD1 172121Z 17014G19KT 37/19 A2991 RMK A01 T03720191  RH  035%=      5-min Rain = 0
KOD1 172122Z 19013G18KT 37/19 A2991 RMK A01 T03740192  RH  035%=      5-min Rain = 0
KOD1 172123Z 17012KT 37/19 A2991 RMK A01 T03740193  RH  035%=      5-min Rain = 0
KOD1 172124Z 17013G18KT 38/19 A2991 RMK A01 T03750193  RH  035%=      5-min Rain = 0
KOD1 172125Z 17016KT 37/19 A2991 RMK A01 T03720191  RH  035%=      5-min Rain = 0
KOD1 172126Z 17017KT 37/19 A2991 RMK A01 T03710190  RH  035%=      5-min Rain = 0
KOD1 172127Z 17013KT 37/19 A2991 RMK A01 T03690189  RH  035%=      5-min Rain = 0
KOD1 172128Z 16012KT 37/19 A2991 RMK A01 T03680189  RH  035%=      5-min Rain = 0
KOD1 172129Z 16014KT 37/19 A2991 RMK A01 T03700192  RH  035%=      5-min Rain = 0
KOD1 172130Z 17015KT 37/19 A2991 RMK A01 T03730193  RH  035%=      5-min Rain = 0
KOD1 172131Z 16014KT 37/19 A2991 RMK A01 T03730190  RH  034%=      5-min Rain = 0
KOD1 172132Z 16013KT 37/19 A2991 RMK A01 T03720188  RH  034%=      5-min Rain = 0
KOD1 172133Z 17014KT 37/19 A2991 RMK A01 T03710190  RH  035%=      5-min Rain = 0
KOD1 172134Z 17013KT 37/19 A2991 RMK A01 T03720190  RH  035%=      5-min Rain = 0
KOD1 172135Z 17014KT 37/19 A2991 RMK A01 T03710188  RH  034%=      5-min Rain = 0
KOD1 172136Z 17011KT 37/19 A2991 RMK A01 T03710190  RH  035%=      5-min Rain = 0
KOD1 172137Z 17013KT 37/19 A2991 RMK A01 T03710190  RH  035%=      5-min Rain = 0
KOD1 172138Z 14016KT 37/19 A299 RMK A01 T03710189  RH  034%=      5-min Rain = 0
KOD1 172139Z 14015KT 37/19 A299 RMK A01 T03720187  RH  034%=      5-min Rain = 0
KOD1 172140Z 15017KT 38/19 A299 RMK A01 T03760189  RH  033%=      5-min Rain = 0
KOD1 172141Z 15013KT 38/19 A299 RMK A01 T03770188  RH  033%=      5-min Rain = 0
KOD1 172142Z 16015KT 38/19 A299 RMK A01 T03750189  RH  034%=      5-min Rain = 0
KOD1 172143Z 16012KT 37/19 A299 RMK A01 T03740192  RH  035%=      5-min Rain = 0
KOD1 172144Z 18016KT 38/19 A299 RMK A01 T03750194  RH  035%=      5-min Rain = 0
KOD1 172145Z 18015KT 37/19 A299 RMK A01 T03740191  RH  034%=      5-min Rain = 0
KOD1 172146Z 18014KT 37/19 A299 RMK A01 T03710189  RH  035%=      5-min Rain = 0
KOD1 172147Z 17012KT 37/19 A299 RMK A01 T03690189  RH  035%=      5-min Rain = 0
KOD1 172148Z 17014KT 37/19 A299 RMK A01 T03680190  RH  035%=      5-min Rain = 0
KOD1 172149Z 17016KT 37/19 A299 RMK A01 T03690188  RH  035%=      5-min Rain = 0
KOD1 172150Z 17010G15KT 37/19 A299 RMK A01 T03690190  RH  035%=      5-min Rain = 0
KOD1 172151Z 17014G19KT 37/19 A299 RMK A01 T03710193  RH  035%=      5-min Rain = 0
KOD1 172152Z 18015KT 37/19 A299 RMK A01 T03720192  RH  035%=      5-min Rain = 0
KOD1 172153Z 18014KT 37/19 A299 RMK A01 T03720192  RH  035%=      5-min Rain = 0
KOD1 172154Z 18017G23KT 37/19 A299 RMK A01 T03720189  RH  034%=      5-min Rain = 0
KOD1 172155Z 17016KT 37/19 A299 RMK A01 T03710190  RH  035%=      5-min Rain = 0
KOD1 172156Z 17016KT 37/19 A299 RMK A01 T03700189  RH  035%=      5-min Rain = 0
KOD1 172157Z 18017KT 37/19 A299 RMK A01 T03690189  RH  035%=      5-min Rain = 0
KOD1 172158Z 18017G23KT 37/19 A299 RMK A01 T03690190  RH  035%=      5-min Rain = 0
KOD1 172159Z 17019G24KT 37/19 A299 RMK A01 T03690190  RH  035%=      5-min Rain = 0
KOD1 172200Z 17018KT 37/19 A299 RMK A01 T03680188  RH  035%=      5-min Rain = 0
KOD1 172201Z 15014KT 37/19 A299 RMK A01 T03680188  RH  035%=      5-min Rain = 0
KOD1 172202Z 16012KT 37/19 A299 RMK A01 T03680188  RH  035%=      5-min Rain = 0
KOD1 172203Z 15016KT 37/19 A299 RMK A01 T03700188  RH  035%=      5-min Rain = 0
KOD1 172204Z 16012KT 37/19 A299 RMK A01 T03700189  RH  035%=      5-min Rain = 0
KOD1 172205Z 16013KT 37/19 A299 RMK A01 T03700191  RH  035%=      5-min Rain = 0
KOD1 172206Z 16014KT 37/19 A2989 RMK A01 T03700191  RH  035%=      5-min Rain = 0
KOD1 172207Z 15014KT 37/19 A299 RMK A01 T03710191  RH  035%=      5-min Rain = 0
KOD1 172208Z 16018KT 37/19 A2989 RMK A01 T03730188  RH  034%=      5-min Rain = 0
KOD1 172209Z 19012KT 37/19 A2989 RMK A01 T03730190  RH  034%=      5-min Rain = 0
KOD1 172210Z 18016KT 37/19 A2989 RMK A01 T03730192  RH  035%=      5-min Rain = 0
KOD1 172211Z 17014KT 37/19 A2989 RMK A01 T03710189  RH  035%=      5-min Rain = 0
KOD1 172212Z 18014G20KT 37/19 A2989 RMK A01 T03700191  RH  035%=      5-min Rain = 0
KOD1 172213Z 19015KT 37/19 A2989 RMK A01 T03700188  RH  034%=      5-min Rain = 0
KOD1 172214Z 18014KT 37/19 A299 RMK A01 T03690187  RH  034%=      5-min Rain = 0
KOD1 172215Z 20013KT 37/19 A2989 RMK A01 T03690188  RH  035%=      5-min Rain = 0
KOD1 172216Z 19012KT 37/19 A2989 RMK A01 T03690188  RH  035%=      5-min Rain = 0
KOD1 172217Z 19013G18KT 37/19 A2989 RMK A01 T03690187  RH  035%=      5-min Rain = 0
KOD1 172218Z 19017G22KT 37/19 A2989 RMK A01 T03680187  RH  035%=      5-min Rain = 0
KOD1 172219Z 17016KT 37/19 A2989 RMK A01 T03670189  RH  035%=      5-min Rain = 0
KOD1 172220Z 16016G21KT 37/19 A2989 RMK A01 T03680190  RH  035%=      5-min Rain = 0
KOD1 172221Z 16015KT 37/19 A2989 RMK A01 T03690189  RH  035%=      5-min Rain = 0
KOD1 172222Z 16013KT 37/19 A2989 RMK A01 T03680189  RH  035%=      5-min Rain = 0
KOD1 172223Z 15015KT 37/19 A2989 RMK A01 T03700191  RH  035%=      5-min Rain = 0
KOD1 172224Z 15015KT 37/19 A2989 RMK A01 T03690187  RH  034%=      5-min Rain = 0
KOD1 172225Z 15013KT 37/19 A2989 RMK A01 T03680188  RH  035%=      5-min Rain = 0
KOD1 172226Z 17014KT 37/19 A2989 RMK A01 T03690191  RH  035%=      5-min Rain = 0
KOD1 172227Z 17015KT 37/19 A2989 RMK A01 T03680192  RH  036%=      5-min Rain = 0
KOD1 172228Z 17018G23KT 37/19 A2989 RMK A01 T03680193  RH  036%=      5-min Rain = 0
KOD1 172229Z 15020KT 37/19 A2989 RMK A01 T03680191  RH  036%=      5-min Rain = 0
KOD1 172230Z 15017KT 37/19 A2989 RMK A01 T03670189  RH  035%=      5-min Rain = 0
KOD1 172231Z 15015KT 37/19 A2989 RMK A01 T03660191  RH  036%=      5-min Rain = 0
KOD1 172232Z 14016KT 37/19 A2989 RMK A01 T03660189  RH  035%=      5-min Rain = 0
KOD1 172233Z 14017KT 37/19 A2989 RMK A01 T03680187  RH  035%=      5-min Rain = 0
KOD1 172234Z 15015G22KT 37/19 A2989 RMK A01 T03700189  RH  035%=      5-min Rain = 0
KOD1 172235Z 16017G22KT 37/19 A2989 RMK A01 T03730190  RH  034%=      5-min Rain = 0
KOD1 172236Z 17016KT 37/19 A2989 RMK A01 T03710190  RH  035%=      5-min Rain = 0
KOD1 172237Z 15014G19KT 37/19 A2989 RMK A01 T03690191  RH  035%=      5-min Rain = 0
KOD1 172238Z 15015KT 37/19 A2989 RMK A01 T03700187  RH  034%=      5-min Rain = 0
KOD1 172239Z 15012KT 37/19 A2989 RMK A01 T03700190  RH  035%=      5-min Rain = 0
KOD1 172240Z 14016KT 37/19 A2989 RMK A01 T03710189  RH  034%=      5-min Rain = 0
KOD1 172241Z 17015KT 37/19 A2989 RMK A01 T03730191  RH  035%=      5-min Rain = 0
KOD1 172242Z 17017KT 37/19 A2989 RMK A01 T03710190  RH  035%=      5-min Rain = 0
KOD1 172243Z 17019KT 37/19 A2989 RMK A01 T03680186  RH  035%=      5-min Rain = 0
KOD1 172244Z 17016KT 37/19 A2989 RMK A01 T03660186  RH  035%=      5-min Rain = 0
KOD1 172245Z 16015KT 37/19 A2989 RMK A01 T03660189  RH  036%=      5-min Rain = 0
KOD1 172246Z 16014KT 37/19 A2989 RMK A01 T03660187  RH  035%=      5-min Rain = 0
KOD1 172247Z 16018KT 37/19 A2989 RMK A01 T03660187  RH  035%=      5-min Rain = 0
KOD1 172248Z 18015G20KT 37/19 A2989 RMK A01 T03660190  RH  036%=      5-min Rain = 0
KOD1 172249Z 18015KT 37/19 A2989 RMK A01 T03670191  RH  036%=      5-min Rain = 0
KOD1 172250Z 18015KT 37/19 A2988 RMK A01 T03660187  RH  035%=      5-min Rain = 0
KOD1 172251Z 18016KT 36/19 A2988 RMK A01 T03640185  RH  035%=      5-min Rain = 0
KOD1 172252Z 16013KT 36/19 A2988 RMK A01 T03640188  RH  036%=      5-min Rain = 0
KOD1 172253Z 15014KT 36/19 A2988 RMK A01 T03640187  RH  035%=      5-min Rain = 0
KOD1 172254Z 17013KT 36/19 A2988 RMK A01 T03640189  RH  036%=      5-min Rain = 0
KOD1 172255Z 16017KT 37/19 A2988 RMK A01 T03650191  RH  036%=      5-min Rain = 0
KOD1 172256Z 17016KT 37/19 A2988 RMK A01 T03650190  RH  036%=      5-min Rain = 0
KOD1 172257Z 18015G21KT 37/19 A2988 RMK A01 T03650190  RH  036%=      5-min Rain = 0
KOD1 172258Z 17014KT 37/19 A2988 RMK A01 T03650192  RH  036%=      5-min Rain = 0
KOD1 172259Z 16014G19KT 37/19 A2988 RMK A01 T03660191  RH  036%=      5-min Rain = 0
KOD1 172300Z 17016KT 37/19 A2988 RMK A01 T03650187  RH  035%=      5-min Rain = 0
KOD1 172301Z 17013KT 37/19 A2988 RMK A01 T03650191  RH  036%=      5-min Rain = 0
KOD1 172302Z 17011KT 37/19 A2988 RMK A01 T03660190  RH  036%=      5-min Rain = 0
KOD1 172303Z 16012KT 37/19 A2988 RMK A01 T03660189  RH  035%=      5-min Rain = 0
KOD1 172304Z 16013KT 37/19 A2988 RMK A01 T03660188  RH  035%=      5-min Rain = 0
KOD1 172305Z 17016KT 37/19 A2988 RMK A01 T03660190  RH  036%=      5-min Rain = 0
KOD1 172306Z 18017KT 37/19 A2988 RMK A01 T03650188  RH  035%=      5-min Rain = 0
KOD1 172307Z 18012KT 36/19 A2988 RMK A01 T03640186  RH  035%=      5-min Rain = 0
KOD1 172308Z 18015KT 36/19 A2988 RMK A01 T03640187  RH  036%=      5-min Rain = 0
KOD1 172309Z 18014KT 36/19 A2988 RMK A01 T03630186  RH  035%=      5-min Rain = 0
KOD1 172310Z 17015KT 36/19 A2988 RMK A01 T03640189  RH  036%=      5-min Rain = 0
KOD1 172311Z 17015KT 36/19 A2988 RMK A01 T03640186  RH  035%=      5-min Rain = 0
KOD1 172312Z 18016KT 36/19 A2988 RMK A01 T03640187  RH  035%=      5-min Rain = 0
KOD1 172313Z 17017KT 36/19 A2988 RMK A01 T03630185  RH  035%=      5-min Rain = 0
KOD1 172314Z 17018KT 36/18 A2988 RMK A01 T03630181  RH  034%=      5-min Rain = 0
KOD1 172315Z 17017KT 36/18 A2988 RMK A01 T03640180  RH  034%=      5-min Rain = 0
KOD1 172316Z 18017G22KT 36/18 A2988 RMK A01 T03640179  RH  034%=      5-min Rain = 0
KOD1 172317Z 16013KT 36/18 A2988 RMK A01 T03630180  RH  034%=      5-min Rain = 0
KOD1 172318Z 17011G16KT 36/19 A2988 RMK A01 T03640185  RH  035%=      5-min Rain = 0
KOD1 172319Z 17016KT 37/18 A2988 RMK A01 T03660183  RH  034%=      5-min Rain = 0
KOD1 172320Z 17016KT 36/18 A2988 RMK A01 T03640180  RH  034%=      5-min Rain = 0
KOD1 172321Z 17015KT 36/18 A2988 RMK A01 T03630180  RH  034%=      5-min Rain = 0
KOD1 172322Z 19013KT 36/18 A2988 RMK A01 T03640181  RH  034%=      5-min Rain = 0
KOD1 172323Z 18013G19KT 37/18 A2988 RMK A01 T03650182  RH  034%=      5-min Rain = 0
KOD1 172324Z 18017KT 36/17 A2988 RMK A01 T03640173  RH  032%=      5-min Rain = 0
KOD1 172325Z 18014KT 36/17 A2988 RMK A01 T03630172  RH  033%=      5-min Rain = 0
KOD1 172326Z 17013KT 36/17 A2988 RMK A01 T03630173  RH  033%=      5-min Rain = 0
KOD1 172327Z 17017G22KT 36/17 A2988 RMK A01 T03630172  RH  032%=      5-min Rain = 0
KOD1 172328Z 17018KT 36/17 A2988 RMK A01 T03620170  RH  032%=      5-min Rain = 0
KOD1 172329Z 17015KT 36/17 A2988 RMK A01 T03620170  RH  032%=      5-min Rain = 0
KOD1 172330Z 18014KT 36/17 A2988 RMK A01 T03620169  RH  032%=      5-min Rain = 0
KOD1 172331Z 17016KT 36/17 A2988 RMK A01 T03620168  RH  032%=      5-min Rain = 0
KOD1 172332Z 17014KT 36/17 A2988 RMK A01 T03610167  RH  032%=      5-min Rain = 0
KOD1 172333Z 16013KT 36/17 A2988 RMK A01 T03620169  RH  032%=      5-min Rain = 0
KOD1 172334Z 16011KT 36/17 A2988 RMK A01 T03630171  RH  032%=      5-min Rain = 0
KOD1 172335Z 17014KT 36/17 A2988 RMK A01 T03640169  RH  032%=      5-min Rain = 0
KOD1 172336Z 18015KT 36/17 A2988 RMK A01 T03630169  RH  032%=      5-min Rain = 0
KOD1 172337Z 18017G22KT 36/17 A2987 RMK A01 T03620168  RH  032%=      5-min Rain = 0
KOD1 172338Z 18017KT 36/17 A2987 RMK A01 T03610168  RH  032%=      5-min Rain = 0
KOD1 172339Z 18014KT 36/17 A2987 RMK A01 T03610170  RH  032%=      5-min Rain = 0
KOD1 172340Z 17014KT 36/17 A2987 RMK A01 T03610169  RH  032%=      5-min Rain = 0
KOD1 172341Z 16013G19KT 36/17 A2987 RMK A01 T03620173  RH  033%=      5-min Rain = 0
KOD1 172342Z 16017KT 36/17 A2987 RMK A01 T03620170  RH  032%=      5-min Rain = 0
KOD1 172343Z 16016KT 36/17 A2987 RMK A01 T03620169  RH  032%=      5-min Rain = 0
KOD1 172344Z 16015KT 36/17 A2987 RMK A01 T03620170  RH  032%=      5-min Rain = 0
KOD1 172345Z 16015KT 36/17 A2987 RMK A01 T03620170  RH  032%=      5-min Rain = 0
KOD1 172346Z 18012KT 36/17 A2987 RMK A01 T03620171  RH  032%=      5-min Rain = 0
KOD1 172347Z 17014KT 36/17 A2987 RMK A01 T03610173  RH  033%=      5-min Rain = 0
KOD1 172348Z 17014KT 36/17 A2987 RMK A01 T03600172  RH  033%=      5-min Rain = 0
KOD1 172349Z 16015KT 36/17 A2987 RMK A01 T03600171  RH  033%=      5-min Rain = 0
KOD1 172350Z 16015KT 36/17 A2987 RMK A01 T03600171  RH  033%=      5-min Rain = 0
KOD1 172351Z 17018KT 36/17 A2987 RMK A01 T03600173  RH  033%=      5-min Rain = 0
KOD1 172352Z 16015KT 36/17 A2987 RMK A01 T03580174  RH  034%=      5-min Rain = 0
KOD1 172353Z 15015KT 36/17 A2987 RMK A01 T03590174  RH  034%=      5-min Rain = 0
KOD1 172354Z 15014KT 36/17 A2987 RMK A01 T03590173  RH  033%=      5-min Rain = 0
KOD1 172355Z 16016KT 36/18 A2987 RMK A01 T03600175  RH  034%=      5-min Rain = 0
KOD1 172356Z 16014KT 36/18 A2987 RMK A01 T03600176  RH  034%=      5-min Rain = 0
KOD1 172357Z 16014KT 36/18 A2987 RMK A01 T03600175  RH  034%=      5-min Rain = 0
KOD1 172358Z 16015G20KT 36/18 A2987 RMK A01 T03600177  RH  034%=      5-min Rain = 0
KOD1 172359Z 16018KT 36/18 A2987 RMK A01 T03590177  RH  034%=      5-min Rain = 0
KOD1 180000Z 15016KT 36/18 A2987 RMK A01 T03580177  RH  034%=      5-min Rain = 0
KOD1 180001Z 15015KT 36/18 A2987 RMK A01 T03580177  RH  034%=      5-min Rain = 0
KOD1 180002Z 16012KT 36/18 A2987 RMK A01 T03590181  RH  035%=      5-min Rain = 0
KOD1 180003Z 15013KT 36/18 A2987 RMK A01 T03580183  RH  036%=      5-min Rain = 0
KOD1 180004Z 16016KT 36/19 A2987 RMK A01 T03580185  RH  036%=      5-min Rain = 0
KOD1 180005Z 16014G22KT 36/19 A2987 RMK A01 T03580187  RH  037%=      5-min Rain = 0
KOD1 180006Z 17015G21KT 36/19 A2987 RMK A01 T03570188  RH  037%=      5-min Rain = 0
KOD1 180007Z 16018KT 36/19 A2987 RMK A01 T03550189  RH  038%=      5-min Rain = 0
KOD1 180008Z 17016KT 35/19 A2987 RMK A01 T03540188  RH  038%=      5-min Rain = 0
KOD1 180009Z 17014KT 35/19 A2987 RMK A01 T03540189  RH  038%=      5-min Rain = 0
KOD1 180010Z 16014KT 35/19 A2987 RMK A01 T03540191  RH  038%=      5-min Rain = 0
KOD1 180011Z 16015KT 35/19 A2987 RMK A01 T03540190  RH  038%=      5-min Rain = 0
KOD1 180012Z 16015KT 35/19 A2987 RMK A01 T03540189  RH  038%=      5-min Rain = 0
KOD1 180013Z 16014KT 35/19 A2987 RMK A01 T03540190  RH  038%=      5-min Rain = 0
KOD1 180014Z 16015G20KT 35/19 A2987 RMK A01 T03540191  RH  038%=      5-min Rain = 0
KOD1 180015Z 16016KT 35/19 A2987 RMK A01 T03540190  RH  038%=      5-min Rain = 0
KOD1 180016Z 17017KT 35/19 A2987 RMK A01 T03530189  RH  038%=      5-min Rain = 0
KOD1 180017Z 16015KT 35/19 A2987 RMK A01 T03520189  RH  038%=      5-min Rain = 0
KOD1 180018Z 16017KT 35/19 A2987 RMK A01 T03510188  RH  038%=      5-min Rain = 0
KOD1 180019Z 16018KT 35/19 A2987 RMK A01 T03510188  RH  038%=      5-min Rain = 0
KOD1 180020Z 16018KT 35/19 A2987 RMK A01 T03510187  RH  038%=      5-min Rain = 0
KOD1 180021Z 16016KT 35/19 A2987 RMK A01 T03510188  RH  038%=      5-min Rain = 0
KOD1 180022Z 16017KT 35/19 A2987 RMK A01 T03510187  RH  038%=      5-min Rain = 0
KOD1 180023Z 16014KT 35/19 A2987 RMK A01 T03500187  RH  038%=      5-min Rain = 0
KOD1 180024Z 16013KT 35/19 A2987 RMK A01 T03500189  RH  039%=      5-min Rain = 0
KOD1 180025Z 17016KT 35/19 A2987 RMK A01 T03500188  RH  038%=      5-min Rain = 0
KOD1 180026Z 17018KT 35/19 A2987 RMK A01 T03490187  RH  039%=      5-min Rain = 0
KOD1 180027Z 17014KT 35/19 A2987 RMK A01 T03480187  RH  039%=      5-min Rain = 0
KOD1 180028Z 16011KT 35/19 A2987 RMK A01 T03480188  RH  039%=      5-min Rain = 0
KOD1 180029Z 16015KT 35/19 A2987 RMK A01 T03480188  RH  039%=      5-min Rain = 0
KOD1 180030Z 15018KT 35/19 A2987 RMK A01 T03490186  RH  038%=      5-min Rain = 0
KOD1 180031Z 16016KT 35/19 A2987 RMK A01 T03490185  RH  038%=      5-min Rain = 0
KOD1 180032Z 16015KT 35/19 A2987 RMK A01 T03490186  RH  038%=      5-min Rain = 0
KOD1 180033Z 16017KT 35/19 A2987 RMK A01 T03480185  RH  038%=      5-min Rain = 0
KOD1 180034Z 16016KT 35/19 A2987 RMK A01 T03480186  RH  038%=      5-min Rain = 0
KOD1 180035Z 16017KT 35/19 A2987 RMK A01 T03470185  RH  038%=      5-min Rain = 0
KOD1 180036Z 16016KT 35/19 A2987 RMK A01 T03470185  RH  038%=      5-min Rain = 0
KOD1 180037Z 16017KT 35/18 A2987 RMK A01 T03470183  RH  038%=      5-min Rain = 0
KOD1 180038Z 15017KT 35/18 A2987 RMK A01 T03470183  RH  038%=      5-min Rain = 0
KOD1 180039Z 15017KT 35/18 A2987 RMK A01 T03470183  RH  038%=      5-min Rain = 0
KOD1 180040Z 15014KT 35/18 A2987 RMK A01 T03470184  RH  038%=      5-min Rain = 0
KOD1 180041Z 16016KT 35/18 A2987 RMK A01 T03470184  RH  038%=      5-min Rain = 0
KOD1 180042Z 16014KT 35/19 A2987 RMK A01 T03460185  RH  039%=      5-min Rain = 0
KOD1 180043Z 16013KT 35/19 A2987 RMK A01 T03460187  RH  039%=      5-min Rain = 0
KOD1 180044Z 16016KT 35/19 A2987 RMK A01 T03460186  RH  039%=      5-min Rain = 0
KOD1 180045Z 16015KT 35/19 A2987 RMK A01 T03460186  RH  039%=      5-min Rain = 0
KOD1 180046Z 16014G19KT 35/19 A2987 RMK A01 T03450185  RH  039%=      5-min Rain = 0
KOD1 180047Z 16014KT 35/19 A2987 RMK A01 T03450186  RH  039%=      5-min Rain = 0
KOD1 180048Z 16011KT 34/19 A2987 RMK A01 T03440187  RH  040%=      5-min Rain = 0
KOD1 180049Z 16015KT 34/19 A2987 RMK A01 T03440186  RH  039%=      5-min Rain = 0
KOD1 180050Z 16017G22KT 34/19 A2987 RMK A01 T03430186  RH  039%=      5-min Rain = 0
KOD1 180051Z 16015KT 34/19 A2987 RMK A01 T03430186  RH  039%=      5-min Rain = 0
KOD1 180052Z 17014KT 34/19 A2987 RMK A01 T03430187  RH  040%=      5-min Rain = 0
KOD1 180053Z 17014KT 34/19 A2987 RMK A01 T03420188  RH  040%=      5-min Rain = 0
KOD1 180054Z 17015KT 34/19 A2987 RMK A01 T03420188  RH  040%=      5-min Rain = 0
KOD1 180055Z 16016KT 34/19 A2987 RMK A01 T03420188  RH  040%=      5-min Rain = 0
KOD1 180056Z 16016KT 34/19 A2987 RMK A01 T03410187  RH  040%=      5-min Rain = 0
KOD1 180057Z 16015KT 34/19 A2987 RMK A01 T03420187  RH  040%=      5-min Rain = 0
KOD1 180058Z 16017KT 34/19 A2987 RMK A01 T03420187  RH  040%=      5-min Rain = 0
KOD1 180059Z 16017KT 34/19 A2987 RMK A01 T03420187  RH  040%=      5-min Rain = 0
KOD1 180100Z 16015KT 34/19 A2987 RMK A01 T03420188  RH  040%=      5-min Rain = 0
KOD1 180101Z 16013KT 34/19 A2987 RMK A01 T03410188  RH  041%=      5-min Rain = 0
KOD1 180102Z 15012KT 34/19 A2987 RMK A01 T03410189  RH  041%=      5-min Rain = 0
KOD1 180103Z 15015KT 34/19 A2987 RMK A01 T03410190  RH  041%=      5-min Rain = 0
KOD1 180104Z 15011KT 34/19 A2987 RMK A01 T03400191  RH  041%=      5-min Rain = 0
KOD1 180105Z 15014KT 34/19 A2987 RMK A01 T03400191  RH  041%=      5-min Rain = 0
KOD1 180106Z 16014KT 34/19 A2987 RMK A01 T03390191  RH  042%=      5-min Rain = 0
KOD1 180107Z 15014KT 34/19 A2987 RMK A01 T03390191  RH  042%=      5-min Rain = 0
KOD1 180108Z 15014KT 34/19 A2987 RMK A01 T03380190  RH  042%=      5-min Rain = 0
KOD1 180109Z 16013KT 34/19 A2987 RMK A01 T03380191  RH  042%=      5-min Rain = 0
KOD1 180110Z 16014KT 34/19 A2987 RMK A01 T03380190  RH  042%=      5-min Rain = 0
KOD1 180111Z 15010KT 34/19 A2987 RMK A01 T03370191  RH  042%=      5-min Rain = 0
KOD1 180112Z 16012KT 34/19 A2987 RMK A01 T03370191  RH  042%=      5-min Rain = 0
KOD1 180113Z 16014KT 34/19 A2987 RMK A01 T03360190  RH  042%=      5-min Rain = 0
KOD1 180114Z 15013KT 34/19 A2988 RMK A01 T03370191  RH  042%=      5-min Rain = 0
KOD1 180115Z 15014G19KT 34/19 A2988 RMK A01 T03360190  RH  042%=      5-min Rain = 0
KOD1 180116Z 15016KT 34/19 A2987 RMK A01 T03360190  RH  042%=      5-min Rain = 0
KOD1 180117Z 15017KT 34/19 A2987 RMK A01 T03360190  RH  042%=      5-min Rain = 0
KOD1 180118Z 15014KT 34/19 A2988 RMK A01 T03360190  RH  042%=      5-min Rain = 0
KOD1 180119Z 15016KT 34/19 A2988 RMK A01 T03350190  RH  042%=      5-min Rain = 0
KOD1 180120Z 15015G20KT 34/19 A2987 RMK A01 T03350189  RH  042%=      5-min Rain = 0
KOD1 180121Z 16015KT 34/19 A2988 RMK A01 T03350190  RH  042%=      5-min Rain = 0
KOD1 180122Z 15014G19KT 34/19 A2988 RMK A01 T03350190  RH  042%=      5-min Rain = 0
KOD1 180123Z 15013KT 33/19 A2988 RMK A01 T03340190  RH  043%=      5-min Rain = 0
KOD1 180124Z 15015KT 33/19 A2988 RMK A01 T03340189  RH  043%=      5-min Rain = 0
KOD1 180125Z 16014KT 33/19 A2988 RMK A01 T03340189  RH  042%=      5-min Rain = 0
KOD1 180126Z 15012KT 33/19 A2988 RMK A01 T03330190  RH  043%=      5-min Rain = 0
KOD1 180127Z 15014KT 33/19 A2988 RMK A01 T03330190  RH  043%=      5-min Rain = 0
KOD1 180128Z 16011KT 33/19 A2988 RMK A01 T03320190  RH  043%=      5-min Rain = 0
KOD1 180129Z 16012KT 33/19 A2988 RMK A01 T03320190  RH  043%=      5-min Rain = 0
KOD1 180130Z 16014KT 33/19 A2988 RMK A01 T03310190  RH  043%=      5-min Rain = 0
KOD1 180131Z 15012KT 33/19 A2988 RMK A01 T03310190  RH  043%=      5-min Rain = 0
KOD1 180132Z 15011KT 33/19 A2987 RMK A01 T03310190  RH  043%=      5-min Rain = 0
KOD1 180133Z 15013KT 33/19 A2988 RMK A01 T03300190  RH  043%=      5-min Rain = 0
KOD1 180134Z 15013KT 33/19 A2988 RMK A01 T03300189  RH  044%=      5-min Rain = 0
KOD1 180135Z 15012KT 33/19 A2988 RMK A01 T03300189  RH  044%=      5-min Rain = 0
KOD1 180136Z 15012KT 33/19 A2988 RMK A01 T03290190  RH  044%=      5-min Rain = 0
KOD1 180137Z 15011KT 33/19 A2988 RMK A01 T03290190  RH  044%=      5-min Rain = 0
KOD1 180138Z 15012KT 33/19 A2988 RMK A01 T03280191  RH  044%=      5-min Rain = 0
KOD1 180139Z 15015KT 33/19 A2988 RMK A01 T03280191  RH  044%=      5-min Rain = 0
KOD1 180140Z 15014KT 33/19 A2988 RMK A01 T03280191  RH  044%=      5-min Rain = 0
KOD1 180141Z 15016KT 33/19 A2988 RMK A01 T03280191  RH  044%=      5-min Rain = 0
KOD1 180142Z 15012KT 33/19 A2988 RMK A01 T03280192  RH  045%=      5-min Rain = 0
KOD1 180143Z 15013KT 33/19 A2988 RMK A01 T03270192  RH  045%=      5-min Rain = 0
KOD1 180144Z 15013KT 33/19 A2988 RMK A01 T03270192  RH  045%=      5-min Rain = 0
KOD1 180145Z 15012KT 33/19 A2988 RMK A01 T03260192  RH  045%=      5-min Rain = 0
KOD1 180146Z 15013KT 33/19 A2988 RMK A01 T03260192  RH  045%=      5-min Rain = 0
KOD1 180147Z 15013KT 33/19 A2988 RMK A01 T03260192  RH  045%=      5-min Rain = 0
KOD1 180148Z 15014KT 33/19 A2988 RMK A01 T03260192  RH  045%=      5-min Rain = 0
KOD1 180149Z 15015KT 33/19 A2988 RMK A01 T03260192  RH  045%=      5-min Rain = 0
KOD1 180150Z 15013KT 33/19 A2988 RMK A01 T03260192  RH  045%=      5-min Rain = 0
KOD1 180151Z 15013KT 33/19 A2988 RMK A01 T03250192  RH  045%=      5-min Rain = 0
KOD1 180152Z 15011KT 33/19 A2988 RMK A01 T03250193  RH  046%=      5-min Rain = 0
KOD1 180153Z 15013KT 32/19 A2988 RMK A01 T03240193  RH  046%=      5-min Rain = 0
KOD1 180154Z 15013KT 32/19 A2988 RMK A01 T03240193  RH  046%=      5-min Rain = 0
KOD1 180155Z 15013KT 32/19 A2988 RMK A01 T03230193  RH  046%=      5-min Rain = 0
KOD1 180156Z 15014G19KT 32/19 A2988 RMK A01 T03230193  RH  046%=      5-min Rain = 0
KOD1 180157Z 15014KT 32/19 A2988 RMK A01 T03240192  RH  046%=      5-min Rain = 0
KOD1 180158Z 15012G17KT 32/19 A2988 RMK A01 T03240193  RH  046%=      5-min Rain = 0
KOD1 180159Z 15013KT 32/19 A2988 RMK A01 T03230192  RH  046%=      5-min Rain = 0
KOD1 180200Z 15012KT 32/19 A2988 RMK A01 T03230193  RH  046%=      5-min Rain = 0
KOD1 180201Z 15013KT 32/19 A2988 RMK A01 T03230193  RH  046%=      5-min Rain = 0
KOD1 180202Z 15011KT 32/19 A2988 RMK A01 T03220193  RH  046%=      5-min Rain = 0
KOD1 180203Z 15011KT 32/19 A2988 RMK A01 T03220193  RH  047%=      5-min Rain = 0
KOD1 180204Z 15012KT 32/19 A2988 RMK A01 T03210193  RH  047%=      5-min Rain = 0
KOD1 180205Z 15012KT 32/19 A2988 RMK A01 T03200193  RH  047%=      5-min Rain = 0
KOD1 180206Z 15011KT 32/19 A2988 RMK A01 T03200193  RH  047%=      5-min Rain = 0
KOD1 180207Z 15010KT 32/19 A2988 RMK A01 T03200193  RH  047%=      5-min Rain = 0
KOD1 180208Z 15012KT 32/19 A2988 RMK A01 T03190193  RH  047%=      5-min Rain = 0
KOD1 180209Z 15011KT 32/19 A2988 RMK A01 T03190192  RH  047%=      5-min Rain = 0
KOD1 180210Z 15011KT 32/19 A2988 RMK A01 T03190193  RH  047%=      5-min Rain = 0
KOD1 180211Z 15012KT 32/19 A2988 RMK A01 T03200193  RH  047%=      5-min Rain = 0
KOD1 180212Z 15012KT 32/19 A2988 RMK A01 T03200193  RH  047%=      5-min Rain = 0
KOD1 180213Z 15014KT 32/19 A2988 RMK A01 T03190192  RH  047%=      5-min Rain = 0
KOD1 180214Z 15012KT 32/19 A2988 RMK A01 T03200192  RH  047%=      5-min Rain = 0
KOD1 180215Z 15010KT 32/19 A2988 RMK A01 T03190192  RH  047%=      5-min Rain = 0
KOD1 180216Z 15012KT 32/19 A2988 RMK A01 T03190192  RH  047%=      5-min Rain = 0
KOD1 180217Z 16015KT 32/19 A2988 RMK A01 T03190192  RH  047%=      5-min Rain = 0
KOD1 180218Z 15011KT 32/19 A2988 RMK A01 T03200192  RH  047%=      5-min Rain = 0
KOD1 180219Z 15014KT 32/19 A2988 RMK A01 T03190192  RH  047%=      5-min Rain = 0
KOD1 180220Z 15012KT 32/19 A2988 RMK A01 T03200192  RH  047%=      5-min Rain = 0
KOD1 180221Z 15011KT 32/19 A2988 RMK A01 T03190192  RH  047%=      5-min Rain = 0
KOD1 180222Z 15013KT 32/19 A2988 RMK A01 T03180191  RH  047%=      5-min Rain = 0
KOD1 180223Z 15013KT 32/19 A2988 RMK A01 T03190191  RH  047%=      5-min Rain = 0
KOD1 180224Z 15013KT 32/19 A2988 RMK A01 T03190191  RH  047%=      5-min Rain = 0
KOD1 180225Z 15012KT 32/19 A2988 RMK A01 T03190191  RH  047%=      5-min Rain = 0
KOD1 180226Z 15013KT 32/19 A2988 RMK A01 T03180191  RH  047%=      5-min Rain = 0
KOD1 180227Z 15011KT 32/19 A2988 RMK A01 T03180191  RH  047%=      5-min Rain = 0
KOD1 180228Z 15012KT 32/19 A2988 RMK A01 T03180191  RH  047%=      5-min Rain = 0
KOD1 180229Z 15012KT 32/19 A2988 RMK A01 T03180191  RH  047%=      5-min Rain = 0
KOD1 180230Z 15010KT 32/19 A2988 RMK A01 T03170191  RH  047%=      5-min Rain = 0
KOD1 180231Z 15012KT 32/19 A2988 RMK A01 T03160191  RH  048%=      5-min Rain = 0
KOD1 180232Z 15013KT 32/19 A2988 RMK A01 T03160191  RH  047%=      5-min Rain = 0
KOD1 180233Z 16011KT 32/19 A2988 RMK A01 T03160191  RH  047%=      5-min Rain = 0
KOD1 180234Z 16012KT 32/19 A2988 RMK A01 T03160191  RH  047%=      5-min Rain = 0
KOD1 180235Z 16013KT 32/19 A2989 RMK A01 T03160190  RH  047%=      5-min Rain = 0
KOD1 180236Z 15012KT 32/19 A2989 RMK A01 T03160190  RH  047%=      5-min Rain = 0
KOD1 180237Z 16014KT 32/19 A2989 RMK A01 T03160190  RH  047%=      5-min Rain = 0
KOD1 180238Z 15013KT 32/19 A2989 RMK A01 T03170190  RH  047%=      5-min Rain = 0
KOD1 180239Z 16012KT 32/19 A2989 RMK A01 T03160190  RH  047%=      5-min Rain = 0
KOD1 180240Z 15013KT 32/19 A2989 RMK A01 T03170190  RH  047%=      5-min Rain = 0
KOD1 180241Z 16012KT 32/19 A2989 RMK A01 T03160190  RH  047%=      5-min Rain = 0
KOD1 180242Z 16012KT 32/19 A2989 RMK A01 T03160190  RH  047%=      5-min Rain = 0
KOD1 180243Z 15012KT 32/19 A2989 RMK A01 T03160190  RH  047%=      5-min Rain = 0
KOD1 180244Z 16013KT 32/19 A2989 RMK A01 T03160190  RH  047%=      5-min Rain = 0
KOD1 180245Z 16011KT 32/19 A2989 RMK A01 T03160190  RH  047%=      5-min Rain = 0
KOD1 180246Z 16011KT 32/19 A2989 RMK A01 T03150190  RH  048%=      5-min Rain = 0
KOD1 180247Z 16010KT 31/19 A2989 RMK A01 T03140190  RH  048%=      5-min Rain = 0
KOD1 180248Z 16010KT 31/19 A2989 RMK A01 T03130190  RH  048%=      5-min Rain = 0
KOD1 180249Z 16010KT 31/19 A2989 RMK A01 T03130190  RH  048%=      5-min Rain = 0
KOD1 180250Z 16011KT 31/19 A2989 RMK A01 T03120190  RH  048%=      5-min Rain = 0
KOD1 180251Z 16010KT 31/19 A2989 RMK A01 T03120190  RH  048%=      5-min Rain = 0
KOD1 180252Z 16012KT 31/19 A2989 RMK A01 T03120190  RH  048%=      5-min Rain = 0
KOD1 180253Z 16010KT 31/19 A2989 RMK A01 T03120190  RH  048%=      5-min Rain = 0
KOD1 180254Z 16011KT 31/19 A2989 RMK A01 T03120190  RH  048%=      5-min Rain = 0
KOD1 180255Z 16010KT 31/19 A2989 RMK A01 T03120190  RH  048%=      5-min Rain = 0
KOD1 180256Z 16011KT 31/19 A2989 RMK A01 T03110190  RH  048%=      5-min Rain = 0
KOD1 180257Z 16011KT 31/19 A2989 RMK A01 T03110190  RH  048%=      5-min Rain = 0
KOD1 180258Z 16010KT 31/19 A299 RMK A01 T03110190  RH  048%=      5-min Rain = 0
KOD1 180259Z 16012KT 31/19 A299 RMK A01 T03110190  RH  048%=      5-min Rain = 0
KOD1 180300Z 16011KT 31/19 A299 RMK A01 T03110189  RH  048%=      5-min Rain = 0
KOD1 180301Z 16010KT 31/19 A299 RMK A01 T03110189  RH  048%=      5-min Rain = 0
KOD1 180302Z 16011KT 31/19 A299 RMK A01 T03110190  RH  048%=      5-min Rain = 0
KOD1 180303Z 16010KT 31/19 A299 RMK A01 T03110189  RH  048%=      5-min Rain = 0
KOD1 180304Z 16012KT 31/19 A299 RMK A01 T03110190  RH  048%=      5-min Rain = 0
KOD1 180305Z 16010KT 31/19 A299 RMK A01 T03110190  RH  049%=      5-min Rain = 0
KOD1 180306Z 16010KT 31/19 A299 RMK A01 T03110189  RH  049%=      5-min Rain = 0
KOD1 180307Z 16011KT 31/19 A299 RMK A01 T03110189  RH  049%=      5-min Rain = 0
KOD1 180308Z 16011KT 31/19 A299 RMK A01 T03110190  RH  049%=      5-min Rain = 0
KOD1 180309Z 16010KT 31/19 A299 RMK A01 T03110189  RH  049%=      5-min Rain = 0
KOD1 180310Z 16009KT 31/19 A299 RMK A01 T03110189  RH  049%=      5-min Rain = 0
KOD1 180311Z 16010KT 31/19 A299 RMK A01 T03100190  RH  049%=      5-min Rain = 0
KOD1 180312Z 16011KT 31/19 A299 RMK A01 T03090189  RH  049%=      5-min Rain = 0
KOD1 180313Z 16009KT 31/19 A299 RMK A01 T03100189  RH  049%=      5-min Rain = 0
KOD1 180314Z 16011KT 31/19 A299 RMK A01 T03100189  RH  049%=      5-min Rain = 0
KOD1 180315Z 15010KT 31/19 A299 RMK A01 T03100189  RH  049%=      5-min Rain = 0
KOD1 180316Z 16009KT 31/19 A299 RMK A01 T03090190  RH  049%=      5-min Rain = 0
KOD1 180317Z 16010KT 31/19 A299 RMK A01 T03080190  RH  049%=      5-min Rain = 0
KOD1 180318Z 16010KT 31/19 A299 RMK A01 T03080189  RH  049%=      5-min Rain = 0
KOD1 180319Z 15010KT 31/19 A299 RMK A01 T03080190  RH  049%=      5-min Rain = 0
KOD1 180320Z 15010KT 31/19 A299 RMK A01 T03080190  RH  049%=      5-min Rain = 0
KOD1 180321Z 16011KT 31/19 A299 RMK A01 T03080190  RH  049%=      5-min Rain = 0
KOD1 180322Z 15011KT 31/19 A299 RMK A01 T03080189  RH  049%=      5-min Rain = 0
KOD1 180323Z 15010KT 31/19 A299 RMK A01 T03090189  RH  049%=      5-min Rain = 0
KOD1 180324Z 16011KT 31/19 A299 RMK A01 T03090189  RH  049%=      5-min Rain = 0
KOD1 180325Z 16011KT 31/19 A299 RMK A01 T03090189  RH  049%=      5-min Rain = 0
KOD1 180326Z 16011KT 31/19 A299 RMK A01 T03090190  RH  049%=      5-min Rain = 0
KOD1 180327Z 16011KT 31/19 A299 RMK A01 T03080190  RH  049%=      5-min Rain = 0
KOD1 180328Z 15010KT 31/19 A299 RMK A01 T03080190  RH  049%=      5-min Rain = 0
KOD1 180329Z 16011KT 31/19 A299 RMK A01 T03070190  RH  050%=      5-min Rain = 0
KOD1 180330Z 16010KT 31/19 A299 RMK A01 T03080190  RH  049%=      5-min Rain = 0
KOD1 180331Z 16010KT 31/19 A299 RMK A01 T03070191  RH  050%=      5-min Rain = 0
KOD1 180332Z 16011KT 31/19 A299 RMK A01 T03070190  RH  050%=      5-min Rain = 0
KOD1 180333Z 16011KT 31/19 A299 RMK A01 T03070190  RH  050%=      5-min Rain = 0
KOD1 180334Z 16011KT 31/19 A299 RMK A01 T03080190  RH  049%=      5-min Rain = 0
KOD1 180335Z 16010KT 31/19 A299 RMK A01 T03080190  RH  050%=      5-min Rain = 0
KOD1 180336Z 16011KT 31/19 A299 RMK A01 T03070191  RH  050%=      5-min Rain = 0
KOD1 180337Z 16010KT 31/19 A299 RMK A01 T03070191  RH  050%=      5-min Rain = 0
KOD1 180338Z 16010KT 31/19 A299 RMK A01 T03060191  RH  050%=      5-min Rain = 0
KOD1 180339Z 16009KT 31/19 A299 RMK A01 T03060191  RH  050%=      5-min Rain = 0
KOD1 180340Z 16010KT 31/19 A299 RMK A01 T03060191  RH  050%=      5-min Rain = 0
KOD1 180341Z 16009KT 31/19 A299 RMK A01 T03060191  RH  051%=      5-min Rain = 0
KOD1 180342Z 16010KT 31/19 A299 RMK A01 T03050192  RH  051%=      5-min Rain = 0
KOD1 180343Z 16009KT 31/19 A299 RMK A01 T03050192  RH  051%=      5-min Rain = 0
KOD1 180344Z 16010KT 31/19 A2991 RMK A01 T03050192  RH  051%=      5-min Rain = 0
KOD1 180345Z 16010KT 31/19 A2991 RMK A01 T03050192  RH  051%=      5-min Rain = 0
KOD1 180346Z 16010KT 30/19 A2991 RMK A01 T03040192  RH  051%=      5-min Rain = 0
KOD1 180347Z 16011KT 30/19 A2991 RMK A01 T03040192  RH  051%=      5-min Rain = 0
KOD1 180348Z 16011KT 30/19 A2991 RMK A01 T03040192  RH  051%=      5-min Rain = 0
KOD1 180349Z 16010KT 30/19 A2991 RMK A01 T03040192  RH  051%=      5-min Rain = 0
KOD1 180350Z 16009KT 30/19 A2991 RMK A01 T03040193  RH  051%=      5-min Rain = 0
KOD1 180351Z 16010KT 30/19 A2991 RMK A01 T03030192  RH  051%=      5-min Rain = 0
KOD1 180352Z 16010KT 30/19 A2991 RMK A01 T03030192  RH  051%=      5-min Rain = 0
KOD1 180353Z 16011KT 30/19 A2991 RMK A01 T03040192  RH  051%=      5-min Rain = 0
KOD1 180354Z 16011KT 30/19 A2991 RMK A01 T03040192  RH  051%=      5-min Rain = 0
KOD1 180355Z 16009KT 31/19 A2991 RMK A01 T03050192  RH  051%=      5-min Rain = 0
KOD1 180356Z 16011KT 30/19 A2991 RMK A01 T03040193  RH  051%=      5-min Rain = 0
KOD1 180357Z 16009KT 30/19 A2991 RMK A01 T03040193  RH  051%=      5-min Rain = 0
KOD1 180358Z 16011G18KT 30/19 A2991 RMK A01 T03030193  RH  052%=      5-min Rain = 0
KOD1 180359Z 16011KT 30/19 A2991 RMK A01 T03030193  RH  052%=      5-min Rain = 0
KOD1 180400Z 16010KT 30/19 A2991 RMK A01 T03040193  RH  052%=      5-min Rain = 0
KOD1 180401Z 16011KT 30/19 A2991 RMK A01 T03030193  RH  052%=      5-min Rain = 0
KOD1 180402Z 16012KT 30/19 A2991 RMK A01 T03030193  RH  052%=      5-min Rain = 0
KOD1 180403Z 16012KT 30/19 A2991 RMK A01 T03040192  RH  051%=      5-min Rain = 0
KOD1 180404Z 17012KT 30/19 A2991 RMK A01 T03040193  RH  051%=      5-min Rain = 0
KOD1 180405Z 16011KT 31/19 A2991 RMK A01 T03050193  RH  051%=      5-min Rain = 0
KOD1 180406Z 17013KT 30/19 A2991 RMK A01 T03040193  RH  051%=      5-min Rain = 0
KOD1 180407Z 16012KT 31/19 A2991 RMK A01 T03050193  RH  051%=      5-min Rain = 0
KOD1 180408Z 16011KT 30/19 A2991 RMK A01 T03040193  RH  051%=      5-min Rain = 0
KOD1 180409Z 16010KT 30/19 A2991 RMK A01 T03040193  RH  052%=      5-min Rain = 0
KOD1 180410Z 16010KT 30/19 A2991 RMK A01 T03030193  RH  052%=      5-min Rain = 0
KOD1 180411Z 16010KT 30/19 A2991 RMK A01 T03020193  RH  052%=      5-min Rain = 0
KOD1 180412Z 16010KT 30/19 A2991 RMK A01 T03020193  RH  052%=      5-min Rain = 0
KOD1 180413Z 16011KT 30/19 A2991 RMK A01 T03010193  RH  052%=      5-min Rain = 0
KOD1 180414Z 16011KT 30/19 A2991 RMK A01 T03010193  RH  052%=      5-min Rain = 0
KOD1 180415Z 16012KT 30/19 A2991 RMK A01 T03010193  RH  052%=      5-min Rain = 0
KOD1 180416Z 16013KT 30/19 A2991 RMK A01 T03020193  RH  052%=      5-min Rain = 0
KOD1 180417Z 16013KT 30/19 A2991 RMK A01 T03030193  RH  052%=      5-min Rain = 0
KOD1 180418Z 16013KT 30/19 A2991 RMK A01 T03030193  RH  052%=      5-min Rain = 0
KOD1 180419Z 16011KT 30/19 A2991 RMK A01 T03030193  RH  052%=      5-min Rain = 0
KOD1 180420Z 16011KT 30/19 A2991 RMK A01 T03030194  RH  052%=      5-min Rain = 0
KOD1 180421Z 16010KT 30/19 A2991 RMK A01 T03020194  RH  052%=      5-min Rain = 0
KOD1 180422Z 16010KT 30/19 A2991 RMK A01 T03010194  RH  053%=      5-min Rain = 0
KOD1 180423Z 16011KT 30/19 A2991 RMK A01 T03010194  RH  053%=      5-min Rain = 0
KOD1 180424Z 16011KT 30/19 A2991 RMK A01 T03010193  RH  053%=      5-min Rain = 0
KOD1 180425Z 16009KT 30/19 A2991 RMK A01 T03000194  RH  053%=      5-min Rain = 0
KOD1 180426Z 16011KT 30/19 A2991 RMK A01 T02990194  RH  053%=      5-min Rain = 0
KOD1 180427Z 16010KT 30/19 A2991 RMK A01 T02990194  RH  053%=      5-min Rain = 0
KOD1 180428Z 16011KT 30/19 A2991 RMK A01 T02990194  RH  053%=      5-min Rain = 0
KOD1 180429Z 16011KT 30/19 A2991 RMK A01 T02990194  RH  053%=      5-min Rain = 0
KOD1 180430Z 16012KT 30/19 A2991 RMK A01 T02990194  RH  053%=      5-min Rain = 0
KOD1 180431Z 16013KT 30/19 A2991 RMK A01 T02990194  RH  053%=      5-min Rain = 0
KOD1 180432Z 16013KT 30/19 A2991 RMK A01 T03000194  RH  053%=      5-min Rain = 0
KOD1 180433Z 16011KT 30/19 A2991 RMK A01 T03000194  RH  053%=      5-min Rain = 0
KOD1 180434Z 16012KT 30/19 A2991 RMK A01 T03000194  RH  053%=      5-min Rain = 0
KOD1 180435Z 16012KT 30/19 A2991 RMK A01 T03000194  RH  053%=      5-min Rain = 0
KOD1 180436Z 16012KT 30/20 A2991 RMK A01 T03000195  RH  053%=      5-min Rain = 0
KOD1 180437Z 17012KT 30/20 A2991 RMK A01 T02990195  RH  054%=      5-min Rain = 0
KOD1 180438Z 16012KT 30/20 A2992 RMK A01 T02990195  RH  054%=      5-min Rain = 0
KOD1 180439Z 16011KT 30/20 A2991 RMK A01 T02990195  RH  054%=      5-min Rain = 0
KOD1 180440Z 16013G18KT 30/20 A2992 RMK A01 T02990195  RH  054%=      5-min Rain = 0
KOD1 180441Z 16014KT 30/19 A2992 RMK A01 T03000194  RH  053%=      5-min Rain = 0
KOD1 180442Z 16011KT 30/20 A2992 RMK A01 T03000195  RH  053%=      5-min Rain = 0
KOD1 180443Z 15011KT 30/20 A2992 RMK A01 T03000195  RH  053%=      5-min Rain = 0
KOD1 180444Z 16011KT 30/20 A2992 RMK A01 T02990195  RH  054%=      5-min Rain = 0
KOD1 180445Z 16012KT 30/20 A2992 RMK A01 T02980195  RH  054%=      5-min Rain = 0
KOD1 180446Z 16012KT 30/20 A2992 RMK A01 T02980195  RH  054%=      5-min Rain = 0
KOD1 180447Z 16012KT 30/20 A2992 RMK A01 T02990195  RH  054%=      5-min Rain = 0
KOD1 180448Z 16012KT 30/20 A2992 RMK A01 T02990195  RH  054%=      5-min Rain = 0
KOD1 180449Z 16011KT 30/20 A2992 RMK A01 T02980195  RH  054%=      5-min Rain = 0
KOD1 180450Z 16011KT 30/20 A2992 RMK A01 T02970195  RH  054%=      5-min Rain = 0
KOD1 180451Z 16012KT 30/20 A2992 RMK A01 T02970195  RH  054%=      5-min Rain = 0
KOD1 180452Z 16012KT 30/20 A2992 RMK A01 T02960195  RH  054%=      5-min Rain = 0
KOD1 180453Z 15012KT 30/19 A2992 RMK A01 T02970194  RH  054%=      5-min Rain = 0
KOD1 180454Z 15012KT 30/20 A2992 RMK A01 T02970195  RH  054%=      5-min Rain = 0
KOD1 180455Z 15012KT 30/20 A2992 RMK A01 T02970195  RH  054%=      5-min Rain = 0
KOD1 180456Z 15011KT 30/20 A2992 RMK A01 T02960195  RH  054%=      5-min Rain = 0
KOD1 180457Z 15013KT 30/19 A2992 RMK A01 T02960194  RH  054%=      5-min Rain = 0
KOD1 180458Z 16012KT 30/19 A2992 RMK A01 T02970194  RH  054%=      5-min Rain = 0
KOD1 180459Z 15011KT 30/20 A2992 RMK A01 T02960195  RH  054%=      5-min Rain = 0

Page generated in 0.1553 seconds.